[{"header": {"dx": 0.06612293990616946, "dy": 0.0552356325346848, "nx": 98, "ny": 59, "la1": 35.046912555036876, "la2": 31.78801023549047, "lo1": -121.43107172385933, "lo2": -114.95102361305473, "refTime": "2026040813", "parameterCategory": 1, "parameterNumber": 2}, "data": [5.6, 5.17, 5.2, 4.57, 3.97, 3.56, 3.4, 2.96, 2.77, 2.16, 1.73, 0.0, -0.61, -2.51, -3.16, -4.12, -4.46, -4.46, -5.94, -6.36, -6.71, -5.73, -4.52, -4.09, -3.49, -3.14, -2.5, -2.4, -2.17, -1.7, -0.95, -0.0, -0.0, 0.45, 1.34, 2.24, 2.68, 2.24, 0.89, -0.0, 0.6, 2.12, 3.13, 4.98, 8.8, 11.44, 13.73, 14.13, 14.13, 10.55, 2.17, -0.0, 1.58, 2.53, 2.73, 2.98, 3.72, 4.46, 5.09, 5.43, 4.4, 2.17, 0.0, 0.45, 1.26, 3.07, 4.0, 6.28, 7.76, 10.02, 10.02, 7.56, 5.36, 4.02, 4.02, 5.77, 5.32, 2.24, -1.79, -3.07, -2.6, -1.2, -0.89, -1.2, -1.7, -1.34, -0.45, 0.0, 1.34, 3.39, 5.69, 6.06, 6.01, 6.01, 5.72, 5.43, 4.75, 4.12, 5.14, 5.14, 5.17, 5.0, 4.6, 3.97, 4.03, 3.4, 3.42, 2.77, 2.36, 0.61, 0.0, -0.65, -1.74, -3.48, -3.78, -4.89, -5.37, -5.05, -7.4, -7.52, -5.81, -4.15, -3.49, -2.84, -2.53, -2.5, -2.63, -2.68, -2.17, -1.86, -1.26, -0.57, 0.57, 2.4, 3.53, 3.58, 2.68, 1.34, 1.34, 3.04, 6.0, 8.3, 9.8, 12.07, 13.41, 13.74, 12.45, 3.14, -0.0, 1.0, 2.21, 2.51, 2.73, 2.98, 3.72, 5.09, 5.46, 6.07, 6.0, 4.66, 1.86, 1.58, 2.21, 3.45, 4.93, 5.86, 6.79, 9.11, 9.83, 8.36, 4.92, 3.58, 3.13, 4.41, 8.36, 2.24, -1.79, -3.07, -2.6, -1.2, -0.89, -1.2, -1.7, -1.34, -0.45, 0.0, 1.34, 3.39, 5.69, 6.06, 6.01, 6.01, 5.72, 5.43, 4.75, 4.12, 5.36, 5.14, 5.36, 4.98, 4.57, 3.94, 4.0, 4.03, 3.6, 3.2, 2.77, 1.05, 0.0, 0.0, 0.0, -0.65, -2.48, -3.79, -4.46, -5.59, -5.69, -7.76, -8.37, -7.08, -3.95, -3.45, -2.53, -2.21, -2.63, -3.53, -3.53, -3.58, -3.07, -1.58, -0.0, 2.23, 3.82, 4.47, 4.43, 3.6, 3.16, 5.59, 9.31, 11.08, 11.91, 11.8, 12.38, 10.89, 3.16, -0.0, 0.61, 1.88, 2.84, 3.07, 2.44, 2.98, 3.72, 4.74, 6.07, 6.25, 6.54, 5.05, 3.84, 3.48, 3.48, 4.46, 5.69, 6.25, 6.64, 8.0, 9.08, 9.33, 6.71, 3.51, 3.32, 3.97, 8.94, 4.47, -0.8, -3.58, -2.24, -0.45, -0.63, -1.9, -2.91, -2.24, -0.89, 0.0, 2.17, 5.34, 7.92, 7.68, 6.64, 6.24, 5.3, 4.11, 4.09, 4.09, 5.2, 5.17, 5.14, 5.17, 4.72, 4.38, 4.63, 4.0, 4.03, 3.81, 2.92, 1.76, 0.57, 0.0, 0.61, 0.53, -0.61, -2.48, -4.11, -4.37, -4.27, -4.98, -8.4, -8.8, -8.19, -4.47, -3.39, -2.15, -1.86, -2.63, -4.0, -5.05, -4.52, -3.04, 0.0, 2.68, 3.58, 5.73, 7.2, 7.35, 8.37, 10.21, 11.02, 10.1, 10.05, 9.49, 8.37, 3.16, 0.57, 0.61, 1.84, 2.53, 2.51, 2.2, 2.66, 3.38, 3.72, 4.43, 6.07, 6.54, 6.54, 5.43, 4.46, 3.72, 4.36, 5.06, 6.08, 6.59, 7.59, 8.23, 9.84, 10.52, 7.89, 3.32, 2.51, 2.79, 7.2, 10.02, 0.6, -3.09, -2.17, -0.95, -2.15, -3.82, -4.3, -2.63, -0.45, 1.7, 3.35, 7.92, 9.3, 7.33, 5.94, 5.3, 3.16, 3.07, 3.87, 4.73, 5.2, 5.2, 5.17, 5.17, 5.17, 4.54, 4.6, 4.63, 4.44, 4.0, 3.37, 2.75, 0.63, 0.0, 0.0, 0.57, 0.59, -0.59, -3.15, -5.36, -6.6, -5.6, -6.36, -8.37, -7.98, -8.24, -3.95, -2.24, -0.89, -0.6, -1.84, -4.36, -6.42, -4.5, 0.0, 1.96, 3.2, 6.69, 9.1, 9.78, 10.21, 9.39, 7.44, 6.32, 6.94, 7.71, 6.66, 3.97, 3.14, 3.49, 3.14, 3.14, 2.51, 2.0, 2.66, 3.72, 4.46, 4.81, 6.08, 7.47, 6.79, 4.46, 3.72, 3.9, 5.3, 6.39, 6.08, 5.43, 6.01, 7.64, 9.9, 11.21, 9.45, 3.82, 1.61, 1.19, 4.36, 6.07, 2.24, -1.86, -2.79, -3.14, -4.0, -4.93, -4.52, -2.53, 0.65, 3.16, 6.68, 8.65, 7.95, 6.7, 5.43, 2.21, 0.45, 2.24, 4.43, 6.11, 5.64, 5.64, 5.2, 5.17, 5.17, 5.2, 4.57, 4.6, 4.63, 4.66, 3.8, 2.92, 1.27, 0.66, 0.73, 0.7, 0.63, 0.57, -1.23, -5.0, -7.97, -7.96, -9.1, -8.8, -7.37, -7.28, -6.18, -2.68, -0.79, 0.0, 0.0, 0.0, -1.41, -2.99, 0.0, 1.46, 2.28, 6.67, 10.05, 8.62, 6.2, 4.2, 3.14, 4.92, 9.36, 11.18, 10.73, 8.01, 5.16, 3.82, 3.6, 3.45, 2.51, 2.0, 2.79, 3.79, 4.12, 4.12, 5.69, 8.4, 6.79, 3.49, 3.38, 4.65, 5.43, 6.7, 6.08, 5.09, 4.12, 6.64, 8.91, 9.83, 9.6, 9.2, 4.73, 2.21, 1.41, 1.88, 0.45, -1.86, -3.16, -4.11, -4.75, -5.09, -3.72, -1.41, 1.4, 4.5, 6.79, 6.88, 6.01, 6.68, 2.21, -1.79, -0.89, 3.07, 5.86, 7.71, 5.64, 5.64, 5.64, 5.4, 5.17, 5.17, 5.2, 5.02, 5.04, 4.63, 4.0, 2.92, 1.33, 1.88, 2.23, 1.27, 1.23, 1.35, 0.0, -2.6, -6.51, -7.9, -8.56, -8.31, -7.44, -6.21, -5.33, -3.14, -3.08, -2.35, 0.0, 0.6, 1.2, 0.61, 0.0, 0.0, 1.51, 5.55, 7.96, 5.28, 2.06, 0.0, 2.09, 6.01, 10.4, 11.03, 11.4, 9.36, 5.81, 6.71, 5.81, 3.32, 2.51, 2.48, 2.79, 3.48, 4.46, 4.46, 5.86, 7.71, 5.86, 3.14, 3.14, 3.49, 3.14, 4.46, 6.54, 5.16, 4.41, 5.81, 8.05, 7.6, 7.01, 8.82, 9.26, 4.92, 1.9, 0.45, 1.2, 1.24, -2.11, -2.99, -3.8, -3.8, -2.28, 0.0, 2.28, 3.85, 4.4, 4.5, 5.21, 1.94, -3.13, -3.58, 0.0, 3.16, 6.7, 7.6, 5.64, 5.86, 5.86, 5.62, 5.17, 5.17, 5.17, 5.2, 5.02, 5.04, 3.78, 2.23, 1.49, 2.15, 4.0, 3.07, 2.84, 3.72, 3.32, 2.0, 0.0, -1.08, -3.51, -5.48, -5.45, -4.34, -4.18, -5.62, -6.42, -6.44, -2.8, -0.7, 0.7, 2.6, 2.76, 1.44, 0.69, 2.25, 5.46, 4.94, 3.17, 2.19, 2.15, 4.26, 6.37, 7.68, 7.32, 8.19, 7.56, 8.43, 3.97, 2.91, 2.51, 2.98, 3.72, 4.46, 4.73, 5.05, 6.36, 6.55, 5.16, 2.4, 1.58, 1.24, 0.54, 2.5, 5.64, 6.26, 4.41, 4.73, 6.66, 6.66, 7.89, 9.54, 9.58, 6.67, 3.98, 3.07, 4.3, 4.47, 2.44, -1.32, -1.43, -1.3, 0.0, 1.41, 2.71, 2.89, 3.15, 3.0, 0.0, -3.6, -4.47, -2.91, 0.0, 3.15, 6.7, 6.7, 5.62, 5.83, 5.83, 5.83, 5.36, 5.36, 5.17, 5.86, 5.67, 5.26, 3.97, 2.3, 1.14, 1.65, 2.98, 3.49, 3.84, 4.43, 5.09, 4.46, 3.74, 3.45, 3.14, 1.27, -0.63, -1.49, -1.83, -7.41, -9.87, -6.7, -3.18, -1.06, 0.0, 3.14, 3.02, 3.06, 1.09, 1.02, 3.14, 4.2, 3.21, 3.41, 4.24, 2.08, 1.02, 1.48, 3.21, 5.46, 7.07, 6.64, 5.73, 2.5, 2.51, 3.43, 4.43, 5.09, 6.07, 6.94, 7.28, 6.98, 4.87, 1.6, -1.26, -1.61, -0.0, 1.9, 5.77, 7.15, 3.58, 3.07, 4.41, 7.04, 9.83, 10.18, 8.55, 5.32, 3.98, 4.87, 8.01, 8.49, 4.3, 0.0, 0.0, 0.0, 0.0, 1.36, 2.06, 1.3, 0.0, -2.15, -3.98, -4.47, -3.7, -1.84, 1.13, 4.11, 6.7, 6.44, 5.83, 5.6, 5.8, 5.8, 5.6, 5.14, 5.83, 5.62, 5.64, 5.23, 4.6, 4.12, 2.93, 1.74, 1.56, 3.06, 4.0, 3.88, 3.14, 2.99, 1.99, 1.83, 2.79, 2.86, 0.8, -1.6, -2.53, -6.32, -8.94, -5.55, 0.0, 0.0, 0.0, 0.0, 0.0, 0.94, 3.91, 2.8, 2.6, 2.3, 1.23, 1.23, 1.9, 0.89, 0.45, 0.0, 0.74, 3.02, 5.04, 3.16, 1.2, 1.24, 2.51, 4.46, 5.43, 6.32, 7.2, 7.47, 7.71, 7.45, 6.22, 2.17, -1.0, -1.88, -0.0, 2.5, 5.16, 7.01, 3.98, 3.07, 4.24, 8.48, 10.6, 9.93, 8.38, 6.67, 4.87, 5.64, 7.76, 10.26, 8.91, 4.27, 1.8, 1.8, 1.6, 2.23, 3.14, 2.68, 1.2, -0.89, -2.68, -2.68, -2.23, -1.23, 1.23, 4.07, 6.01, 5.37, 5.83, 5.8, 5.8, 5.8, 5.8, 5.8, 5.6, 5.83, 5.62, 5.2, 5.02, 5.02, 5.26, 3.91, 1.54, 1.56, 3.29, 3.5, 3.39, 2.75, 1.5, 0.81, 0.78, 1.8, 0.71, -0.71, -1.49, -2.3, -5.2, -3.34, 0.0, 0.63, 0.0, -1.16, -2.23, 0.0, 4.18, 3.91, 1.61, 0.45, 0.0, -0.6, -0.0, -0.0, -0.0, -0.63, -1.61, -1.84, -2.79, -2.91, -1.2, 0.8, 2.68, 3.72, 5.09, 6.32, 7.6, 8.19, 8.46, 8.05, 7.15, 3.13, -1.0, -1.88, -0.0, 2.53, 5.43, 6.94, 5.31, 3.97, 6.0, 9.18, 10.1, 8.55, 7.94, 8.38, 6.13, 4.46, 6.7, 9.74, 10.18, 7.56, 3.14, 2.79, 3.53, 4.47, 4.92, 5.36, 4.92, 3.58, 1.2, -1.16, -1.23, -0.61, 1.19, 3.32, 5.0, 3.64, 5.83, 5.6, 5.8, 5.8, 5.8, 5.8, 5.8, 5.83, 5.83, 5.86, 5.64, 5.67, 5.67, 5.7, 5.1, 3.37, 3.37, 3.94, 4.08, 3.45, 2.73, 1.53, 0.49, 0.76, 0.71, 0.0, -0.71, -1.2, -1.34, -1.49, -1.4, -1.34, -1.16, -0.57, 0.0, 0.0, 0.0, -0.57, -1.34, -1.26, -1.58, -1.61, -0.0, 1.26, 0.8, -1.86, -4.02, -4.02, -4.02, -3.51, -1.88, 0.0, 1.34, 2.49, 3.6, 4.73, 7.01, 8.36, 8.05, 7.12, 6.55, 3.13, -1.26, -2.15, -0.0, 2.53, 5.46, 7.03, 5.64, 4.87, 6.64, 8.25, 8.25, 6.79, 6.55, 8.63, 7.47, 5.46, 6.98, 9.21, 8.93, 6.94, 4.0, 3.07, 3.53, 4.47, 5.33, 5.78, 5.32, 4.88, 3.82, 1.88, 0.0, 0.0, 1.88, 3.55, 3.38, 2.44, 5.83, 5.83, 5.8, 5.8, 5.8, 5.8, 5.8, 5.8, 5.83, 5.62, 5.86, 5.64, 5.89, 6.33, 6.67, 6.01, 5.08, 4.83, 5.08, 4.66, 4.46, 3.84, 2.61, 1.6, 1.38, 0.57, -0.89, -2.23, -3.43, -3.7, -3.09, -2.4, -1.61, -0.57, 0.6, 0.45, -0.45, -1.2, -1.2, -1.79, -2.6, -2.5, -0.65, 2.15, 2.23, -1.49, -3.83, -3.83, -3.45, -3.16, -2.44, -1.35, 0.0, 0.59, 2.21, 3.45, 4.41, 6.71, 5.81, 4.47, 3.07, 0.63, -1.34, -1.79, -0.45, 0.95, 2.79, 3.16, 2.84, 2.68, 3.13, 3.97, 4.3, 4.87, 6.55, 9.33, 8.91, 7.07, 7.61, 8.24, 6.35, 5.72, 6.59, 5.72, 3.39, 4.43, 6.36, 5.44, 4.77, 5.32, 5.32, 3.82, 2.5, 1.6, 2.44, 3.43, 2.51, 1.16, 5.62, 5.83, 5.8, 5.8, 5.8, 5.8, 5.8, 6.25, 5.83, 5.83, 6.05, 6.29, 6.06, 6.31, 6.71, 7.27, 7.17, 6.87, 6.04, 6.06, 6.06, 6.32, 5.06, 3.48, 2.58, 0.54, -1.34, -3.2, -4.4, -5.09, -4.77, -3.07, -2.0, -0.63, 0.45, 0.45, -0.0, -0.45, -0.89, -1.27, -2.53, -1.94, 0.0, 3.08, 3.17, 0.0, -2.48, -3.97, -4.21, -3.35, -2.06, -0.99, 0.0, 0.0, 1.04, 2.0, 1.41, 2.8, 3.58, 0.89, -1.7, -2.23, -2.8, -2.8, -1.9, -0.6, 0.0, -0.0, -0.0, 0.59, -0.0, -0.0, 0.63, 2.24, 4.3, 7.89, 7.6, 6.7, 7.06, 6.7, 4.43, 5.59, 8.24, 7.61, 3.78, 5.46, 7.03, 4.52, 3.87, 4.44, 5.78, 4.88, 3.82, 3.45, 3.43, 3.14, 1.86, 0.57, 5.62, 5.83, 6.25, 6.25, 5.8, 5.8, 6.46, 6.25, 6.25, 6.27, 6.27, 6.53, 6.29, 6.7, 7.33, 7.93, 8.19, 7.81, 7.23, 7.55, 7.59, 7.53, 7.17, 6.15, 4.11, 1.16, -1.7, -3.13, -4.34, -5.24, -4.77, -3.44, -1.79, -0.89, 0.45, 0.0, 0.45, -0.45, -0.89, -1.2, -1.16, -0.95, 0.0, 1.07, 0.0, 0.0, -0.63, -0.57, -1.99, -3.35, -2.04, 0.0, 2.04, 0.0, 0.0, 0.0, 0.0, 1.13, 2.4, 0.0, -2.4, -2.5, -3.16, -2.76, -2.6, -2.07, -1.6, -0.0, -0.0, -0.0, -0.0, -0.57, -0.53, -0.0, 1.86, 3.6, 4.52, 5.69, 5.69, 4.0, 2.86, 3.84, 6.32, 6.8, 3.78, 4.46, 4.75, 3.6, 2.63, 3.58, 4.88, 6.11, 5.02, 3.82, 3.82, 2.17, 1.26, 1.26, 5.62, 5.83, 6.5, 6.25, 6.25, 6.25, 6.46, 6.46, 6.25, 6.5, 6.5, 6.27, 6.94, 6.94, 7.6, 7.96, 8.56, 8.82, 8.45, 8.45, 8.45, 8.45, 7.81, 7.64, 6.23, 2.6, 0.0, -1.79, -2.68, -3.39, -3.6, -2.98, -2.4, -1.34, -0.45, 0.45, 0.45, -0.63, -0.89, -1.2, -0.65, 0.0, 0.0, 0.0, -0.89, -1.0, -1.2, -0.0, 0.0, 0.0, 0.0, 0.0, 0.85, 0.45, 0.45, 0.0, 0.7, 1.2, 0.95, 0.0, -0.63, -0.45, -0.57, -0.79, -1.55, -2.07, -1.49, -0.45, -0.0, -0.0, -1.33, -1.16, -0.0, 0.0, 0.0, 1.26, 2.4, 2.91, 2.0, 1.34, 1.79, 2.6, 3.97, 6.21, 4.87, 3.07, 1.9, 1.79, 1.79, 3.13, 4.87, 4.93, 3.6, 4.3, 5.2, 3.39, 2.15, 2.15, 5.62, 5.83, 6.5, 6.25, 6.25, 6.25, 6.46, 6.46, 6.25, 6.25, 6.5, 6.92, 6.68, 6.94, 7.33, 8.24, 8.87, 8.85, 9.08, 9.08, 9.02, 9.02, 8.73, 8.55, 8.15, 6.03, 2.79, 0.95, 0.45, -0.45, -1.24, -1.84, -1.88, -1.26, -0.95, -0.6, -0.6, -0.0, 0.45, 0.0, 0.0, 0.0, 0.0, 0.0, 0.0, -0.0, -1.58, -0.0, -0.0, -0.0, 0.89, 0.45, -0.0, -0.0, -0.0, 0.45, 1.34, 1.34, 0.45, 0.45, 0.89, 0.95, 0.95, 0.89, 0.45, 0.0, 0.0, 0.0, 0.45, -0.8, -1.6, -1.34, -0.63, 0.0, -0.54, -1.2, -0.89, -0.89, -0.63, -0.0, 0.63, 2.24, 3.97, 5.32, 6.07, 3.53, 1.7, 1.7, 2.63, 4.52, 7.14, 4.52, 3.35, 4.27, 6.0, 3.72, 2.53, 2.53, 5.83, 6.27, 6.5, 6.25, 6.25, 6.25, 6.46, 6.46, 6.46, 6.25, 6.5, 6.92, 6.92, 6.92, 7.59, 7.96, 8.58, 9.48, 9.46, 9.08, 9.37, 9.02, 8.73, 8.43, 8.72, 8.48, 7.09, 5.57, 4.34, 2.17, -0.0, -0.53, -1.16, -1.2, -1.61, -1.9, -1.58, -0.45, 0.0, 0.0, 0.0, 0.0, 0.0, 0.0, 0.45, -0.89, -0.89, 0.45, 0.89, -0.0, 1.2, -0.0, -0.0, 0.89, 0.89, 1.34, 1.34, 1.79, 1.34, 1.34, 1.34, 1.26, 1.26, -0.0, -0.0, -0.71, -0.0, 0.0, 0.0, -0.63, -1.58, -1.88, -1.88, -1.84, -3.07, -2.68, -1.49, -0.95, -0.63, -0.45, 0.0, 1.34, 3.07, 5.02, 4.0, 3.45, 3.72, 3.13, 3.6, 5.09, 6.07, 4.52, 3.72, 4.41, 5.69, 3.72, 2.53, 2.53, 5.83, 6.27, 6.5, 6.25, 6.25, 6.25, 6.46, 6.46, 6.9, 6.9, 6.25, 6.92, 6.92, 6.92, 6.92, 7.63, 8.58, 9.19, 9.13, 9.86, 10.68, 10.41, 8.38, 7.06, 7.07, 8.4, 6.8, 5.6, 4.93, 3.7, 0.63, -0.54, -1.2, -1.2, -1.88, -2.21, -1.58, -1.2, -0.89, 0.0, 0.0, 0.45, 0.0, -0.45, -0.89, -0.89, -0.89, -0.45, 0.45, -0.0, -0.0, -0.0, -0.0, -0.0, 1.34, 1.34, 1.79, 1.79, 1.79, 1.79, 1.34, 0.95, -0.0, -0.71, -1.2, -0.99, 0.0, 1.24, 2.53, 1.49, 1.58, 1.58, 1.24, 0.0, -1.86, -1.79, 0.0, 0.45, 0.45, 0.45, 0.0, 1.26, 2.5, 3.43, 3.48, 4.29, 5.86, 6.92, 7.02, 4.67, 3.43, 4.12, 5.46, 4.74, 4.43, 3.78, 3.16, 3.16, 5.83, 6.27, 6.5, 6.5, 6.25, 6.25, 6.46, 6.9, 6.9, 6.9, 6.9, 6.67, 7.16, 7.57, 7.57, 7.33, 7.96, 7.96, 7.44, 7.97, 9.92, 10.7, 9.02, 6.88, 6.88, 6.64, 6.06, 6.23, 5.59, 2.79, 0.45, -0.0, -1.24, -1.24, -2.21, -2.21, -2.5, -1.86, -1.2, -0.89, -0.89, -0.0, -0.0, -0.8, -1.26, -1.34, -0.89, -1.34, -0.95, -0.0, -0.0, -0.0, -0.0, -0.0, 0.4, 1.2, 3.13, 1.34, 1.34, 1.79, 0.89, 0.45, -0.95, -1.0, -0.99, -1.2, -0.45, 1.6, 3.07, 4.02, 4.43, 8.01, 10.7, 9.36, 4.0, 2.21, 1.88, 1.88, 0.0, 0.0, 0.0, 0.0, 1.26, 1.58, 2.53, 3.16, 2.86, 3.16, 6.01, 2.73, 1.94, 4.29, 5.69, 3.79, 3.47, 4.29, 3.64, 3.64, 5.83, 6.27, 6.5, 6.5, 6.25, 6.25, 6.46, 6.9, 6.9, 6.9, 6.9, 6.9, 6.9, 7.57, 7.83, 7.96, 8.59, 8.23, 6.94, 7.24, 8.85, 9.72, 9.13, 7.93, 7.93, 7.59, 6.32, 4.81, 3.49, 0.57, 0.0, -0.0, -0.6, -1.24, -1.9, -2.15, -2.4, -2.4, -1.86, -1.49, -0.95, -0.63, -0.6, -0.6, -1.6, -1.34, -1.34, -1.26, -1.26, -1.26, -0.0, -0.0, -0.0, -0.0, -0.0, 1.2, 2.6, 2.17, 2.24, 0.95, 0.0, -0.0, -1.9, -2.4, -1.2, -1.2, -0.89, 0.0, 1.86, 2.84, 5.43, 8.3, 11.23, 10.73, 7.6, 4.46, 3.08, 2.0, 0.0, -1.24, -0.6, 0.0, 0.0, -0.0, -0.0, 0.45, 0.0, 0.63, 3.53, 3.6, 3.15, 4.71, 5.21, 3.04, 2.6, 3.33, 3.47, 3.47, 6.27, 6.27, 6.5, 6.5, 6.25, 6.25, 6.46, 6.9, 7.13, 6.9, 6.9, 6.9, 6.9, 7.55, 7.95, 8.49, 8.59, 8.87, 7.96, 7.96, 8.24, 8.56, 7.95, 7.95, 8.53, 8.5, 7.81, 5.06, 1.61, 0.0, 0.0, -0.0, -0.63, -1.26, -1.86, -1.86, -2.0, -2.0, -1.86, -1.49, -1.26, -1.26, -0.95, -1.2, -1.6, -1.7, -1.34, -1.58, -1.58, -1.26, -1.26, -0.0, -0.0, -0.0, 0.89, 1.79, 1.26, 1.26, 0.45, 0.0, 0.0, -0.0, -0.57, -1.2, -1.2, -1.2, -0.89, -0.89, -0.0, 0.65, 2.15, 3.84, 4.27, 2.91, 2.2, 2.83, 4.0, 2.54, 0.0, -1.9, -1.86, -1.26, -0.45, -1.26, -1.58, -2.0, -1.7, 0.0, 3.43, 6.64, 7.59, 6.62, 5.35, 2.48, 1.11, 1.19, 2.04, 2.04, 6.27, 6.27, 6.5, 6.5, 6.25, 6.25, 6.46, 6.9, 7.13, 7.13, 6.9, 6.9, 7.55, 7.55, 7.95, 8.58, 8.86, 8.86, 8.59, 9.21, 9.19, 8.85, 7.93, 7.33, 7.95, 8.85, 8.78, 6.28, 2.21, 0.6, 0.63, 0.45, 0.0, -0.63, -0.95, -1.49, -1.86, -2.17, -1.86, -1.49, -1.26, -1.26, -1.26, -1.26, -1.86, -2.4, -2.0, -2.4, -1.58, -1.58, -1.26, -0.95, -0.0, -0.0, -0.0, -0.0, -0.0, -0.0, 0.0, 0.0, 0.0, -0.0, -0.0, -0.0, -0.6, -0.6, -0.0, 0.0, 0.0, 0.0, 0.0, 0.45, -0.0, -0.0, 0.0, 1.32, 2.75, 3.2, 1.76, -0.57, -2.17, -1.86, -1.7, -1.34, -1.79, -1.7, -1.2, 0.0, 3.55, 7.59, 9.21, 7.59, 3.79, 1.2, 0.0, 1.13, 2.4, 2.4, 6.27, 6.27, 6.5, 6.5, 6.5, 6.25, 6.25, 6.9, 7.13, 7.55, 7.55, 7.13, 7.55, 7.55, 8.2, 8.85, 9.22, 9.21, 8.59, 9.21, 9.8, 9.72, 8.5, 7.6, 7.61, 8.56, 8.53, 6.95, 4.11, 1.9, 1.49, 1.2, 0.45, 0.0, -0.89, -1.2, -1.7, -2.12, -2.12, -1.7, -1.49, -1.86, -1.58, -1.9, -2.5, -3.2, -2.8, -2.0, -1.58, -1.58, -1.26, -0.95, -0.95, -0.0, -0.0, -0.0, -0.4, -0.63, 0.0, 0.45, 0.45, 0.0, 0.0, -0.0, -0.57, -0.0, -0.0, 0.45, 0.0, 0.0, 0.0, 0.0, 0.0, -0.0, 0.45, 0.0, 1.99, 2.99, 1.8, 0.89, -1.2, -1.79, -1.49, -1.24, -1.61, -1.16, -0.57, 0.0, 2.72, 4.36, 7.02, 2.48, 1.26, 0.95, 1.34, 2.53, 2.48, 2.48, 6.27, 6.27, 6.5, 6.5, 6.5, 6.5, 6.25, 6.9, 7.13, 7.55, 7.55, 7.55, 7.55, 7.8, 8.2, 8.85, 9.22, 9.22, 8.86, 9.5, 9.82, 10.36, 9.42, 7.9, 7.9, 8.24, 8.24, 6.69, 5.08, 3.48, 2.79, 2.4, 1.49, 0.63, 0.0, -0.45, -1.2, -1.7, -1.7, -1.7, -1.7, -1.86, -2.4, -2.5, -3.07, -3.6, -3.82, -3.07, -2.79, -2.79, -2.21, -1.26, -1.26, -1.26, -1.26, -1.26, -0.0, -0.63, -0.45, 0.0, 0.89, 0.45, -0.45, -0.6, -0.57, -0.0, -0.0, -0.0, -0.0, 0.6, 1.16, 2.23, 2.23, 1.79, 0.89, 1.2, 1.9, 2.21, 2.12, 0.6, -0.99, -1.7, -1.34, -0.99, -1.16, -1.13, -0.63, 0.0, 1.19, 1.11, 0.0, 0.63, 1.34, 2.68, 3.53, 3.6, 3.14, 3.14, 6.27, 6.27, 6.5, 6.5, 6.5, 6.5, 6.25, 6.9, 7.13, 7.55, 7.8, 7.55, 7.55, 7.8, 8.2, 8.2, 8.85, 9.22, 9.21, 9.21, 10.13, 10.4, 9.77, 9.08, 8.5, 8.22, 7.6, 6.35, 5.1, 4.45, 4.07, 3.88, 2.68, 1.86, 0.95, 0.45, -0.45, -1.2, -1.2, -1.7, -1.7, -1.7, -2.0, -2.4, -3.07, -3.2, -3.2, -3.2, -3.14, -2.84, -2.84, -2.23, -1.9, -1.9, -2.21, -1.4, -1.9, -0.0, 0.45, 0.0, 0.63, 0.89, -0.0, -0.0, -0.0, -0.0, -0.6, -0.6, -0.89, 0.0, 1.2, 2.41, 3.35, 3.82, 3.58, 3.53, 3.13, 2.4, 0.89, -1.24, -2.4, -2.17, -1.34, -1.2, -1.61, -1.61, -0.59, 0.0, 0.0, -1.16, -1.61, 0.89, 2.91, 4.11, 4.52, 4.3, 3.87, 3.87, 6.27, 6.27, 6.5, 6.5, 6.5, 6.5, 6.25, 6.67, 7.13, 7.53, 7.53, 7.8, 7.8, 7.53, 7.95, 8.22, 8.86, 8.85, 9.22, 9.5, 9.84, 10.13, 9.8, 9.72, 9.08, 8.78, 7.27, 5.72, 4.75, 4.45, 4.74, 5.29, 4.65, 3.64, 3.07, 1.9, 1.26, 0.63, 0.45, -1.34, -1.34, -1.34, -1.34, -2.17, -2.91, -3.2, -3.2, -3.35, -3.14, -2.84, -2.84, -3.16, -3.16, -3.43, -1.9, -1.58, -1.9, -0.95, 0.45, 0.45, 0.45, 0.45, 0.8, 0.57, -0.0, -0.32, -0.32, -0.45, -0.63, 0.0, 1.16, 2.48, 3.15, 4.09, 3.98, 3.98, 3.2, 1.34, -0.63, -1.58, -2.6, -2.24, -1.34, -1.34, -1.86, -1.84, -1.13, -1.13, -1.88, -3.14, -2.84, -0.51, 2.84, 3.78, 4.37, 4.66, 4.52, 4.52, 6.27, 6.27, 6.27, 6.5, 6.5, 6.5, 6.5, 6.67, 6.9, 7.53, 7.53, 7.53, 7.53, 7.93, 8.2, 8.22, 8.59, 8.86, 9.21, 9.5, 9.84, 10.13, 10.12, 10.09, 9.72, 9.08, 7.27, 5.71, 4.45, 4.45, 4.74, 5.35, 4.94, 4.29, 3.43, 2.79, 2.15, 1.26, 0.0, -0.45, -1.34, -1.34, -1.34, -1.79, -2.12, -2.4, -3.07, -3.35, -3.14, -3.14, -2.84, -2.84, -2.86, -3.48, -3.48, -1.9, -1.9, -0.63, -0.32, -0.89, -0.89, 0.45, 0.63, 0.6, -0.0, 0.89, 0.0, 0.45, 0.0, 0.0, 0.54, 2.23, 3.15, 2.73, 2.23, 1.7, 0.63, -0.0, -0.0, -0.0, -0.63, -1.27, -1.27, -1.2, -0.89, -2.21, -3.15, -3.72, -3.14, -3.14, -2.53, -1.16, 1.8, 3.12, 3.78, 4.41, 4.73, 4.73, 6.27, 6.27, 6.27, 6.5, 6.5, 6.5, 6.5, 6.9, 6.9, 7.13, 7.93, 7.93, 7.93, 7.93, 8.2, 8.86, 8.59, 8.87, 8.59, 9.21, 9.21, 10.13, 9.82, 9.8, 9.77, 10.06, 8.22, 6.04, 4.47, 4.16, 4.74, 5.01, 5.29, 4.94, 4.07, 3.43, 2.79, 2.15, 1.26, 0.0, -0.63, -1.2, -1.2, -0.89, -1.34, -1.9, -2.21, -2.68, -2.79, -2.79, -2.84, -2.84, -3.16, -3.16, -3.16, -3.43, -1.58, -0.8, -0.95, -1.2, -2.24, -1.34, 0.0, 0.0, -0.0, -0.0, -0.0, 0.0, -0.45, -0.6, 0.0, 3.07, 4.27, 4.07, 1.88, 0.0, -2.23, -1.34, 0.0, 0.89, 0.89, 0.0, -0.63, -1.2, -0.63, -1.7, -3.35, -3.72, -3.14, -2.53, -2.15, -1.2, 0.0, 1.73, 3.12, 4.07, 4.74, 4.74, 6.27, 6.27, 6.27, 6.5, 6.5, 6.5, 6.92, 6.9, 6.9, 7.13, 7.53, 8.18, 8.18, 7.93, 8.18, 8.86, 8.59, 8.87, 8.87, 9.21, 9.21, 9.5, 9.5, 9.5, 9.8, 9.77, 8.53, 6.67, 5.08, 4.45, 4.43, 5.29, 5.29, 4.94, 4.37, 4.07, 3.43, 2.79, 1.9, 0.8, 0.0, 0.0, -0.63, -1.2, -1.79, -1.7, -0.95, -1.9, -2.5, -2.21, -2.53, -2.53, -2.84, -3.16, -3.43, -3.43, -3.43, -3.16, -2.15, -2.91, -3.07, -1.79, -0.63, -0.95, -0.95, -0.8, -0.6, 0.45, 0.45, -0.63, 0.0, 2.51, 4.93, 7.47, 6.68, 1.23, -2.21, -3.09, -1.34, 0.63, 1.7, 0.95, 0.0, -0.89, -1.2, -1.6, -1.79, -2.0, -1.58, -1.86, -1.86, -1.58, -0.51, 0.63, 1.88, 3.26, 4.39, 4.39, 6.27, 6.27, 6.27, 6.5, 6.5, 6.92, 6.92, 6.9, 6.9, 7.13, 7.55, 7.93, 8.18, 8.18, 8.18, 8.58, 8.59, 8.87, 8.87, 8.87, 9.21, 9.5, 9.19, 9.19, 9.48, 9.48, 8.53, 6.97, 5.69, 5.06, 5.01, 5.29, 5.29, 4.94, 4.71, 4.37, 4.07, 3.16, 2.23, 1.61, 0.57, 0.0, 0.0, -0.45, -1.79, -1.79, -1.34, -2.12, -2.15, -2.5, -2.53, -2.53, -2.23, -2.84, -2.84, -3.43, -3.43, -4.0, -4.55, -3.32, -3.13, -2.17, -1.49, -1.34, -0.63, -0.6, -0.63, -0.63, 0.95, 2.23, 1.13, 1.27, 3.14, 6.22, 9.72, 8.24, 2.23, -1.34, -2.24, 0.0, 0.99, 0.99, 0.4, 0.45, -0.89, -1.7, -1.86, -1.86, -1.7, -1.34, -0.89, -1.26, -1.16, 0.0, 1.26, 2.06, 3.4, 3.4, 6.27, 6.27, 6.27, 6.27, 6.92, 6.92, 6.92, 6.9, 6.9, 7.13, 7.55, 7.53, 8.18, 8.18, 8.57, 8.58, 8.59, 8.87, 8.87, 8.87, 9.21, 9.21, 9.5, 9.19, 9.17, 9.17, 8.24, 6.97, 5.37, 5.65, 5.65, 5.93, 5.59, 5.49, 5.29, 4.71, 4.11, 3.49, 2.86, 2.23, 1.2, 0.71, 0.6, 0.45, -1.34, -2.6, -2.63, -2.24, -2.4, -2.5, -2.21, -2.53, -2.53, -2.53, -2.53, -2.84, -3.35, -3.88, -4.4, -5.24, -3.13, -2.4, -1.7, -1.34, -0.6, -0.57, -0.0, 0.0, 1.49, 2.53, 2.23, 0.61, 0.76, 3.82, 8.91, 10.02, 4.66, 1.2, -0.45, 0.0, 1.26, 1.49, 1.7, 0.95, 0.0, -0.89, -1.7, -2.5, -2.5, -1.9, -1.26, -0.89, -1.16, -0.55, 0.0, 1.32, 2.06, 2.06, 6.27, 6.27, 6.27, 6.27, 6.92, 6.92, 6.92, 7.16, 6.9, 6.9, 7.55, 7.53, 8.18, 8.18, 8.85, 8.85, 8.59, 8.59, 8.87, 8.87, 9.21, 9.21, 9.5, 9.19, 9.17, 8.56, 7.93, 6.69, 6.06, 5.3, 6.28, 6.23, 6.23, 6.15, 5.59, 5.01, 4.43, 3.83, 3.49, 2.86, 1.84, 1.61, 0.99, 0.0, -1.34, -2.24, -2.24, -2.24, -2.0, -2.15, -2.5, -2.21, -2.21, -2.21, -2.21, -2.53, -2.53, -3.35, -4.11, -4.44, -4.47, -1.7, -1.79, -1.2, -1.24, -1.2, -0.71, -0.0, 0.95, 1.58, 1.2, 0.0, 0.0, 2.48, 6.54, 8.36, 4.3, 1.2, 0.89, 2.24, 3.13, 3.13, 3.09, 3.07, 2.15, 0.42, -0.89, -1.86, -2.5, -2.21, -1.61, -1.2, -1.24, -1.76, -0.59, 0.72, 1.26, 1.26, 6.29, 6.29, 6.27, 6.27, 6.68, 6.92, 6.92, 7.16, 6.9, 6.9, 7.55, 7.8, 7.93, 8.57, 8.85, 8.85, 8.58, 8.59, 8.87, 8.59, 9.5, 9.5, 9.21, 9.19, 9.17, 8.53, 7.32, 6.98, 6.69, 6.06, 5.71, 5.69, 6.28, 6.57, 6.23, 5.06, 4.45, 4.12, 3.49, 2.84, 2.22, 1.84, 1.61, 0.8, 0.0, -1.2, -1.79, -1.79, -2.12, -1.86, -1.9, -1.9, -1.88, -1.88, -2.21, -2.21, -2.5, -2.5, -3.07, -3.39, -2.24, -1.34, -0.89, -1.26, -1.86, -1.58, -1.9, -1.49, -0.89, -0.45, -0.45, 0.45, 0.71, 2.88, 6.35, 6.13, 3.98, 2.68, 3.2, 4.11, 4.73, 4.47, 4.43, 4.3, 3.6, 2.44, 0.6, -0.89, -1.86, -1.61, -1.88, -1.58, -1.34, -1.84, -1.19, 0.0, 0.64, 0.64, 6.29, 6.29, 6.53, 6.27, 6.68, 6.92, 6.92, 6.92, 6.9, 7.31, 7.55, 7.55, 7.93, 8.18, 8.57, 8.85, 8.85, 8.59, 8.59, 8.86, 9.21, 9.21, 9.5, 9.21, 9.19, 8.56, 7.32, 6.7, 6.98, 6.67, 6.32, 6.28, 6.28, 6.87, 6.28, 5.65, 5.06, 4.45, 3.84, 3.49, 2.86, 2.48, 2.23, 1.2, 0.6, 0.0, -0.63, -1.34, -1.6, -1.49, -1.58, -1.9, -1.9, -1.9, -1.9, -2.15, -2.15, -2.15, -2.15, -2.4, -2.6, -1.34, -1.79, -1.6, -1.6, -2.24, -2.12, -1.7, -1.34, -1.34, -1.2, 0.0, 2.21, 6.08, 7.68, 7.06, 5.36, 6.28, 6.7, 6.94, 5.2, 4.47, 3.98, 4.3, 3.82, 3.2, 1.58, 0.63, 0.45, -1.26, -1.58, -1.9, -1.6, -1.26, -1.11, -0.59, 0.0, 0.0, 6.29, 6.29, 6.29, 6.53, 6.94, 6.68, 6.92, 6.92, 7.16, 7.31, 7.55, 7.55, 8.2, 8.46, 8.57, 9.12, 8.85, 8.59, 8.59, 8.86, 9.21, 9.5, 9.21, 9.5, 9.21, 8.58, 7.61, 6.98, 6.98, 6.97, 6.34, 6.32, 6.59, 6.59, 6.87, 5.95, 5.08, 4.75, 4.12, 3.84, 3.49, 2.86, 2.23, 2.21, 1.58, 0.8, 0.0, -0.45, -0.89, -1.2, -1.26, -1.24, -1.24, -1.58, -1.58, -1.9, -2.23, -2.4, -2.4, -2.15, -2.4, -2.4, -2.24, -1.7, -1.34, -1.34, -1.7, -1.7, -1.2, -0.89, -0.63, -0.6, 2.12, 5.32, 8.82, 7.92, 6.71, 7.71, 8.63, 7.48, 5.36, 4.02, 3.53, 2.91, 3.07, 3.07, 2.6, 1.7, 0.89, 0.0, -0.63, -1.49, -1.7, -1.34, -1.0, -1.23, -0.62, -0.62, 6.29, 6.29, 6.29, 6.53, 6.94, 6.68, 6.92, 6.92, 7.57, 7.31, 7.55, 7.55, 8.2, 8.2, 8.57, 8.83, 8.85, 8.86, 8.87, 8.86, 9.21, 9.5, 9.21, 9.5, 9.21, 8.87, 7.95, 7.61, 6.7, 6.69, 6.67, 6.95, 6.95, 6.92, 6.59, 6.28, 5.69, 5.08, 4.45, 3.84, 3.47, 3.22, 2.86, 1.9, 2.21, 1.9, 0.99, 0.63, 0.45, -0.89, -0.95, -0.8, -1.26, -1.26, -1.86, -1.86, -1.86, -1.86, -2.15, -1.9, -1.9, -2.4, -2.24, -1.79, -1.34, -0.89, -1.26, -1.58, -1.26, -0.89, -0.89, -0.89, 0.45, 3.97, 8.94, 8.82, 6.36, 7.28, 8.4, 6.85, 4.3, 3.09, 2.17, 2.17, 2.24, 2.68, 3.13, 3.13, 2.68, 1.79, 0.45, -0.45, -1.34, -1.34, -1.7, -1.84, -2.48, -1.84, 6.29, 6.29, 6.29, 6.29, 6.94, 6.94, 6.92, 6.92, 7.57, 7.31, 7.55, 7.55, 7.55, 8.2, 8.85, 9.12, 9.49, 8.85, 8.59, 8.59, 8.86, 9.21, 9.21, 9.5, 8.87, 8.24, 7.33, 6.97, 6.98, 6.98, 6.69, 7.27, 7.27, 7.23, 6.92, 6.32, 6.28, 5.08, 4.47, 4.12, 3.84, 3.47, 3.22, 1.88, 3.14, 2.79, 2.53, 1.58, 0.95, 0.0, -0.0, -0.6, -0.6, -1.26, -1.26, -1.26, -1.49, -1.86, -1.9, -1.9, -1.9, -1.86, -0.89, -1.34, -0.89, -0.89, -2.0, -1.58, -0.95, -0.45, -0.45, -0.89, 0.0, 4.02, 8.49, 8.91, 5.02, 6.35, 8.58, 7.59, 4.66, 3.2, 2.4, 2.6, 2.68, 3.13, 3.98, 4.43, 4.47, 3.58, 2.17, 0.0, -0.63, -1.34, -1.7, -2.5, -2.51, -2.48, 6.06, 6.06, 6.29, 6.29, 6.94, 6.94, 6.92, 6.92, 7.57, 7.57, 7.31, 7.55, 7.55, 8.2, 8.85, 8.85, 9.49, 9.22, 8.86, 8.87, 8.87, 8.59, 9.21, 9.21, 8.59, 8.24, 7.61, 6.97, 6.98, 6.7, 6.98, 7.3, 7.59, 7.59, 7.23, 6.92, 6.32, 5.69, 5.08, 4.47, 4.12, 3.84, 3.49, 2.2, 1.88, 3.43, 3.16, 1.88, 0.99, 0.0, 0.0, -0.0, -0.63, -0.95, -0.95, -1.2, -1.6, -1.86, -1.86, -1.58, -1.58, -1.24, -1.26, -0.0, -0.45, -1.26, -1.7, -1.27, -0.89, 0.45, 0.45, -0.63, 0.0, 2.86, 5.81, 8.82, 7.56, 5.32, 6.7, 6.96, 4.93, 4.11, 3.82, 4.02, 4.02, 4.43, 4.88, 4.88, 4.88, 4.47, 3.53, 1.58, 0.0, -0.6, -1.26, -1.9, -1.88, -2.51, 6.31, 6.31, 6.29, 6.29, 6.7, 6.94, 7.19, 7.32, 7.57, 7.57, 7.31, 7.55, 7.55, 8.2, 8.46, 8.85, 9.49, 9.49, 8.86, 8.59, 8.59, 8.59, 8.87, 8.87, 8.59, 7.6, 6.97, 6.71, 6.98, 6.7, 6.7, 7.3, 7.6, 7.86, 7.27, 6.95, 6.32, 5.71, 5.08, 4.47, 4.47, 4.12, 3.47, 3.08, 2.18, 2.15, 2.86, 1.61, 0.71, 0.6, 0.45, 0.45, -0.0, -0.63, -0.63, -0.63, -0.95, -1.26, -1.26, -1.58, -1.24, -1.24, -0.95, -1.58, -0.0, -0.0, -0.63, -1.79, -0.89, -0.45, -0.45, -0.95, 0.0, 0.65, 2.8, 4.41, 7.01, 5.81, 4.77, 3.72, 3.14, 3.39, 4.47, 5.32, 6.11, 5.78, 5.33, 5.81, 5.81, 5.36, 4.47, 2.4, 0.0, 0.0, 0.0, -0.54, -1.0, -1.0, 6.31, 6.31, 6.31, 6.29, 6.7, 6.94, 7.19, 7.32, 7.57, 7.57, 7.57, 7.55, 7.55, 8.2, 8.2, 8.85, 8.85, 9.49, 9.22, 8.86, 8.59, 8.59, 8.59, 8.87, 8.59, 7.6, 6.97, 6.71, 6.61, 6.34, 6.7, 7.6, 7.6, 7.86, 7.59, 6.67, 6.34, 6.32, 5.69, 4.75, 4.47, 3.85, 3.84, 4.12, 3.49, 2.84, 1.6, 0.53, 0.54, 0.0, 0.0, 0.0, 0.0, 0.45, 0.45, 0.45, -0.63, -0.6, -0.6, -0.8, -0.99, -1.24, -1.24, -0.95, -0.0, -0.0, -0.0, -1.34, -0.45, -0.45, -0.89, -0.95, 0.0, 0.0, 0.76, 2.86, 4.77, 4.92, 3.98, 2.6, 2.24, 3.87, 6.11, 8.24, 7.94, 7.12, 5.81, 5.81, 5.36, 5.77, 4.88, 3.39, 0.65, 0.0, 0.0, 0.0, 0.0, 0.0, 6.31, 6.31, 6.31, 6.56, 6.7, 6.94, 7.19, 7.32, 7.57, 7.57, 7.57, 7.31, 7.55, 8.2, 8.2, 8.85, 8.85, 9.22, 9.22, 9.21, 8.86, 8.87, 8.87, 8.59, 8.23, 7.6, 6.96, 6.71, 6.33, 6.34, 6.34, 6.7, 7.6, 7.9, 7.59, 6.97, 6.95, 6.04, 5.71, 5.08, 4.47, 4.1, 3.84, 4.12, 4.11, 3.48, 2.23, 1.2, 0.54, 0.57, 0.6, 0.0, 0.45, 0.45, 0.45, 0.45, -0.0, -0.0, -0.0, -0.6, -0.8, -0.57, -1.24, -1.0, -0.0, -0.0, -0.0, -0.0, 0.45, 0.45, -0.89, -0.95, -0.54, 0.0, 1.27, 2.22, 4.0, 5.2, 4.92, 4.3, 6.07, 8.18, 9.86, 9.4, 8.38, 6.71, 5.81, 5.36, 5.32, 5.2, 4.88, 3.87, 1.0, -1.33, -1.33, -0.61, -0.61, -0.61, 6.31, 6.31, 6.31, 6.56, 6.7, 6.94, 7.59, 7.32, 7.57, 7.57, 7.57, 7.31, 7.55, 7.95, 8.2, 8.85, 8.85, 8.85, 9.22, 9.21, 9.21, 8.87, 8.59, 8.59, 8.59, 7.96, 6.96, 6.97, 6.33, 6.34, 6.34, 6.7, 7.6, 7.6, 7.59, 7.27, 6.67, 6.34, 6.01, 5.41, 5.08, 4.47, 4.12, 4.12, 3.83, 3.79, 2.86, 2.23, 1.2, 1.24, 1.26, 1.2, 0.89, 0.89, 0.89, 0.45, -0.0, -0.0, -0.0, -0.0, -0.0, -0.57, -0.71, -1.0, -1.2, -0.0, 1.34, -0.0, -0.0, -1.2, -1.79, -1.2, -0.57, 0.0, 1.33, 1.84, 3.35, 4.77, 7.15, 8.24, 9.56, 11.05, 11.47, 9.89, 7.12, 5.81, 5.36, 5.36, 5.32, 4.73, 5.94, 1.61, -0.65, -1.88, -2.23, -2.15, -2.15, -2.15, 6.31, 6.31, 6.31, 6.31, 6.96, 6.94, 7.33, 7.59, 7.57, 7.57, 7.57, 7.57, 7.55, 7.55, 8.2, 8.46, 8.85, 8.85, 8.85, 9.22, 9.21, 9.21, 9.21, 8.59, 8.59, 7.96, 7.6, 6.7, 6.33, 6.33, 6.34, 6.7, 7.3, 7.6, 7.3, 7.27, 6.97, 6.35, 6.34, 5.71, 5.69, 5.08, 4.75, 4.45, 4.12, 4.11, 3.79, 3.43, 2.79, 2.5, 2.23, 1.86, 1.7, 1.79, 1.34, 0.89, 0.89, -0.0, -0.0, -0.0, -0.0, -0.8, -0.54, -1.2, -0.71, -0.0, 1.34, 0.45, -0.95, -2.5, -2.91, -2.24, -2.12, -1.26, 0.0, 0.0, 1.2, 4.02, 5.02, 5.69, 7.18, 10.29, 11.62, 9.62, 6.58, 4.92, 5.36, 5.78, 5.64, 5.94, 2.0, 0.99, 0.0, -0.54, -1.9, -2.5, -2.5, -2.5, 6.31, 6.31, 6.31, 6.31, 6.96, 6.94, 7.33, 7.59, 7.57, 7.57, 7.57, 7.57, 7.55, 7.55, 8.2, 8.2, 8.2, 8.22, 8.59, 8.59, 9.21, 9.5, 9.21, 8.87, 8.23, 7.59, 7.6, 6.96, 6.97, 6.33, 6.34, 6.7, 6.98, 7.3, 7.3, 7.27, 6.97, 6.35, 6.34, 6.04, 5.71, 5.69, 5.08, 5.06, 4.74, 4.43, 4.11, 4.07, 3.43, 3.35, 3.07, 2.91, 2.6, 2.17, 1.79, 1.34, 0.89, 0.63, -0.0, -0.0, -0.0, -0.0, -1.0, -1.4, -0.65, -0.0, -0.0, -0.0, -1.34, -1.34, -2.91, -3.53, -3.58, -3.13, -2.68, -1.7, -0.0, 2.15, 2.86, 2.66, 3.64, 8.88, 11.62, 9.6, 6.92, 5.2, 4.92, 4.77, 4.52, 1.86, 0.89, 0.45, 0.0, -0.57, -1.24, -1.58, -1.58, -1.58, 6.31, 6.31, 6.31, 6.31, 6.96, 6.94, 7.33, 7.59, 7.57, 7.57, 7.57, 7.57, 7.55, 7.55, 7.8, 8.2, 8.22, 7.96, 8.23, 8.59, 8.87, 9.21, 9.19, 8.58, 8.24, 7.87, 7.6, 6.96, 6.97, 6.71, 6.61, 6.7, 6.98, 7.3, 7.59, 6.97, 6.97, 6.35, 6.06, 6.34, 6.04, 5.71, 5.69, 5.65, 5.06, 5.01, 4.71, 4.37, 4.07, 4.27, 4.11, 3.6, 3.39, 2.91, 2.17, 1.79, 1.34, 0.89, 0.63, -0.0, -0.0, -0.0, -1.0, -1.88, -1.2, -1.2, -0.0, -0.0, 0.89, -0.45, -0.89, -2.91, -3.53, -3.07, -2.4, -1.86, -0.57, 0.53, 1.11, 1.94, 3.15, 6.7, 9.56, 9.49, 8.18, 5.2, 4.3, 3.13, 1.34, 0.45, -0.0, -0.63, -0.89, -1.26, -1.24, -1.58, -1.58, -1.58, 6.07, 6.07, 6.31, 6.31, 6.96, 7.22, 7.33, 7.59, 7.85, 7.57, 7.57, 7.57, 7.55, 7.55, 7.8, 7.83, 7.96, 7.96, 7.96, 8.87, 8.87, 9.5, 9.19, 9.19, 8.58, 8.24, 7.6, 6.96, 6.97, 6.71, 6.61, 6.7, 6.98, 7.3, 7.59, 6.97, 6.97, 6.35, 6.35, 6.34, 6.34, 6.32, 6.01, 6.28, 5.98, 5.93, 5.01, 4.94, 4.65, 4.55, 4.4, 4.11, 3.6, 3.39, 2.6, 2.12, 1.79, 1.34, 1.34, 0.63, -0.0, -0.0, -1.24, -1.88, -1.88, -1.9, -0.0, -0.0, -0.0, 0.45, 0.45, -1.2, -2.4, -2.4, -2.0, -1.58, -1.0, -0.53, -0.0, 1.6, 3.16, 3.78, 6.01, 7.64, 7.54, 5.2, 3.07, 0.89, -0.0, 0.63, -0.0, -1.49, -1.7, -1.6, -1.86, -1.58, -1.58, -1.58, 6.07, 6.07, 6.31, 6.31, 6.96, 6.96, 7.33, 7.59, 7.59, 7.57, 7.57, 7.57, 7.55, 7.55, 7.55, 7.57, 7.57, 7.96, 8.22, 8.86, 8.86, 9.5, 9.5, 9.5, 9.19, 8.58, 7.96, 7.33, 6.97, 6.71, 6.98, 6.7, 6.7, 7.3, 7.59, 6.97, 6.67, 6.35, 6.35, 6.34, 6.34, 6.04, 6.32, 6.28, 6.23, 5.65, 5.59, 5.49, 5.21, 5.08, 4.55, 4.4, 4.11, 3.07, 2.8, 2.0, 1.7, 1.79, 1.34, 0.89, 0.63, -0.0, -1.26, -2.5, -2.5, -1.9, -1.26, -0.6, -0.6, -0.63, 0.0, -0.0, -0.6, -2.6, -2.17, -2.0, -1.58, -1.2, -0.54, 0.65, 2.23, 2.48, 3.15, 5.46, 7.98, 4.88, 3.39, 1.2, 0.45, 0.89, 0.89, -0.63, -1.49, -1.79, -1.86, -2.15, -2.15, -2.15, 6.07, 6.07, 6.31, 6.31, 6.96, 6.96, 7.33, 7.59, 7.59, 7.96, 7.57, 7.57, 7.55, 7.55, 7.57, 7.57, 7.57, 8.22, 8.22, 8.86, 8.86, 9.21, 9.21, 9.5, 9.21, 8.87, 8.24, 7.96, 7.61, 7.33, 6.98, 6.98, 6.7, 6.98, 7.3, 6.97, 6.97, 6.35, 6.06, 6.34, 6.34, 6.04, 6.32, 6.28, 6.28, 6.23, 5.93, 5.86, 5.29, 5.21, 5.08, 4.55, 4.27, 3.07, 2.68, 2.4, 1.86, 1.7, 1.34, 0.89, 0.89, -0.0, -1.26, -2.4, -2.5, -1.86, -1.26, -0.95, -1.2, -0.63, -0.63, -0.0, -0.0, -0.0, -2.17, -2.17, -1.86, -1.58, -1.24, -0.0, 1.2, 2.23, 2.84, 4.52, 8.02, 4.88, 1.88, -0.0, 0.0, 1.24, 1.58, 0.45, -0.95, -1.79, -1.86, -2.15, -2.15, -2.15, 6.07, 6.07, 6.07, 6.31, 6.7, 6.96, 7.6, 7.59, 7.59, 7.96, 7.96, 7.83, 7.55, 7.55, 7.57, 7.57, 7.57, 8.22, 8.22, 8.86, 8.86, 8.86, 9.21, 9.5, 9.21, 8.59, 8.58, 8.24, 8.24, 7.61, 7.61, 6.98, 6.98, 7.3, 7.3, 7.59, 6.97, 6.67, 6.06, 6.34, 6.04, 6.32, 6.32, 6.28, 6.28, 6.23, 5.93, 5.59, 5.49, 5.21, 4.84, 4.55, 4.0, 3.35, 3.07, 2.5, 2.4, 2.12, 1.6, 1.34, 0.89, 0.45, -0.63, -2.0, -2.8, -1.86, -1.26, -0.63, -0.89, -0.89, -1.34, -0.89, -0.0, -0.0, -0.95, -1.2, -1.26, -0.99, -0.57, -0.0, 0.57, 1.61, 2.79, 7.92, 7.15, 3.07, -0.0, -0.54, 0.0, 0.53, 1.0, 0.4, -0.89, -1.79, -1.86, -2.23, -2.23, -2.23, 5.92, 5.92, 6.07, 6.31, 6.7, 6.96, 7.6, 7.59, 7.59, 7.96, 7.96, 8.22, 7.55, 7.31, 7.57, 7.57, 7.57, 8.22, 8.22, 8.22, 8.59, 8.86, 9.5, 9.21, 8.87, 8.59, 8.58, 8.24, 8.24, 7.95, 7.61, 7.61, 7.32, 7.6, 7.3, 7.59, 6.97, 6.67, 6.35, 6.34, 6.04, 6.32, 6.01, 6.28, 5.95, 5.98, 5.65, 5.59, 5.49, 5.29, 5.21, 4.65, 4.0, 3.72, 2.79, 2.5, 2.15, 1.86, 1.7, 1.2, 0.89, 0.45, 0.45, -1.7, -2.6, -2.6, -1.6, -0.63, -0.45, -0.89, -1.34, -1.34, -0.89, 0.0, -0.63, -0.95, -0.95, -0.63, -0.0, -0.0, -0.0, 0.99, 4.52, 6.85, 4.77, 0.53, -1.27, -1.16, -0.45, 0.0, 0.0, 0.0, -0.89, -1.7, -1.86, -1.86, -1.86, -1.86, 5.92, 5.92, 6.33, 6.31, 6.7, 6.96, 7.6, 7.59, 7.96, 7.96, 7.96, 7.57, 7.57, 7.32, 7.32, 7.32, 7.83, 8.22, 8.22, 8.22, 8.59, 8.86, 9.21, 9.21, 8.87, 8.87, 8.24, 8.24, 8.24, 8.24, 7.95, 7.61, 7.32, 7.6, 7.9, 7.59, 7.27, 6.97, 6.95, 6.34, 6.34, 6.32, 6.32, 6.28, 6.28, 6.23, 5.65, 5.93, 5.59, 5.29, 4.94, 4.65, 4.0, 3.43, 3.35, 2.79, 2.5, 2.4, 1.86, 1.7, 1.34, 0.89, 0.0, -1.34, -2.17, -2.17, -1.7, -0.95, -0.63, -0.89, -0.89, -1.34, -1.2, -1.34, -1.2, -1.2, -0.89, -0.45, 0.0, 0.0, 0.45, -0.0, 3.6, 4.27, 3.6, 0.57, -1.84, -2.51, -2.17, -2.15, -2.21, -1.26, -0.89, -1.2, -1.26, -1.24, -1.24, -1.24, 5.92, 5.92, 6.33, 6.31, 6.7, 6.96, 7.6, 7.59, 7.33, 7.59, 7.59, 7.59, 7.59, 7.59, 7.59, 7.32, 7.83, 7.95, 8.22, 8.22, 8.22, 8.86, 8.86, 9.21, 8.59, 8.87, 8.24, 7.96, 8.24, 7.95, 8.24, 7.61, 7.6, 7.6, 8.19, 7.86, 7.59, 7.27, 6.95, 6.95, 6.64, 6.32, 6.32, 6.28, 6.28, 6.23, 6.23, 5.93, 5.59, 5.59, 5.29, 4.94, 4.07, 4.0, 3.43, 3.14, 2.79, 2.5, 2.4, 1.86, 1.7, 1.34, 0.45, -0.45, -1.79, -2.24, -1.79, -1.2, -1.2, -0.89, -1.34, -1.34, -1.34, -1.34, -1.2, -0.95, -1.34, -1.2, -0.6, 0.0, 0.0, 0.89, 2.17, 3.6, 3.82, 1.2, -1.88, -3.48, -3.6, -3.54, -3.6, -2.91, -1.34, -0.63, -0.57, -0.57, -0.57, -0.57, 5.92, 5.92, 6.33, 6.31, 6.7, 6.96, 7.33, 7.6, 7.6, 7.6, 7.59, 7.59, 7.33, 7.33, 7.59, 7.32, 7.57, 8.22, 8.22, 8.22, 8.22, 8.86, 8.86, 9.21, 8.87, 8.87, 8.24, 8.24, 8.24, 7.95, 7.61, 7.61, 7.6, 7.6, 7.86, 7.86, 7.86, 7.55, 7.55, 6.95, 6.92, 6.92, 6.59, 6.62, 6.28, 6.23, 6.23, 5.88, 5.93, 5.59, 5.86, 4.94, 4.65, 4.07, 4.0, 3.72, 3.35, 3.07, 2.68, 2.4, 1.86, 1.7, 1.2, 0.45, -1.34, -1.79, -1.79, -1.34, -1.34, -0.89, -1.34, -1.34, -0.89, -0.89, -1.2, -1.2, -0.89, -1.2, -0.8, -0.8, 0.0, 0.4, 1.7, 3.13, 3.98, 3.13, -0.0, -3.14, -3.72, -3.58, -3.82, -3.39, -1.86, 0.0, 0.0, -0.54, -0.54, -0.54, 5.92, 5.92, 6.33, 6.31, 6.7, 6.96, 6.96, 7.61, 7.33, 7.6, 7.6, 7.6, 7.33, 7.33, 7.59, 7.32, 7.57, 7.83, 8.22, 8.22, 8.22, 8.86, 8.86, 8.87, 8.87, 8.87, 8.24, 7.96, 8.24, 7.95, 7.61, 7.32, 7.6, 7.3, 7.59, 7.86, 8.15, 7.81, 7.55, 7.23, 6.92, 6.92, 6.59, 6.87, 6.28, 6.57, 6.23, 6.23, 5.93, 5.93, 5.59, 5.29, 5.21, 4.65, 4.37, 4.0, 3.72, 3.35, 3.07, 2.68, 2.4, 1.86, 1.7, 0.63, 0.45, -1.34, -1.79, -1.79, -0.89, -0.45, -0.89, -0.89, -0.89, -0.89, -0.89, -0.89, -0.63, -0.95, -0.8, -0.57, -0.57, 0.0, 1.24, 2.91, 4.02, 4.02, 1.79, -1.26, -2.79, -2.68, -2.68, -2.91, -1.88, -0.61, 0.0, 0.0, 0.0, 0.0, 5.92, 5.92, 6.33, 6.31, 6.97, 6.97, 7.33, 7.61, 7.33, 7.6, 7.6, 7.6, 7.33, 7.33, 7.59, 7.57, 7.57, 7.57, 8.22, 8.22, 8.22, 8.49, 8.86, 8.86, 8.59, 8.59, 8.24, 7.96, 8.24, 7.95, 7.93, 7.32, 7.6, 7.3, 7.59, 7.86, 8.15, 7.81, 7.55, 7.23, 7.51, 6.92, 6.92, 6.87, 6.87, 6.28, 6.57, 6.23, 6.23, 5.93, 5.93, 5.29, 4.94, 4.65, 4.65, 4.55, 4.0, 3.88, 3.35, 3.2, 2.68, 2.4, 1.86, 1.6, 0.0, -0.63, -1.6, -1.7, -0.95, 0.45, 0.45, -0.45, -0.89, -0.45, -0.89, -1.26, -1.26, -1.2, -1.2, -1.26, -0.57, 0.0, 1.2, 2.5, 3.87, 4.47, 3.97, 1.79, -0.6, -1.61, -1.58, -2.24, -1.88, -1.16, -0.53, 0.0, 0.0, 0.0, 5.92, 5.92, 6.33, 6.33, 6.71, 6.97, 6.97, 7.61, 7.33, 7.6, 7.6, 7.6, 7.6, 7.59, 7.59, 7.57, 7.57, 7.57, 7.57, 8.22, 8.22, 8.22, 8.49, 8.59, 8.23, 7.96, 8.24, 7.96, 8.24, 8.24, 7.93, 8.22, 7.6, 7.3, 7.59, 7.86, 8.15, 8.15, 7.81, 7.85, 7.51, 7.51, 7.17, 7.21, 6.87, 6.87, 6.28, 6.57, 6.23, 6.23, 5.93, 5.86, 5.29, 5.21, 4.65, 4.65, 4.55, 4.0, 3.88, 3.35, 3.2, 2.68, 2.4, 1.86, 0.6, 0.0, -1.2, -1.26, -0.6, 0.0, 0.45, 0.45, 0.45, 0.0, -0.89, -2.12, -2.0, -1.34, -1.2, -0.6, -0.57, 0.0, 1.16, 2.23, 3.6, 4.43, 4.43, 3.53, 1.34, -0.8, -1.58, -1.79, -1.86, -1.0, 0.0, 0.0, 0.0, 0.0, 5.92, 5.92, 5.92, 6.33, 6.71, 6.97, 6.97, 7.61, 7.61, 7.33, 7.6, 7.6, 7.6, 7.33, 7.59, 7.57, 7.57, 7.57, 7.57, 8.22, 8.22, 8.22, 8.22, 8.22, 8.23, 7.96, 8.24, 8.24, 8.24, 8.24, 7.93, 8.22, 7.9, 7.9, 7.86, 7.86, 8.15, 8.15, 8.08, 8.08, 7.73, 7.51, 7.51, 7.44, 7.44, 6.87, 6.87, 6.52, 6.57, 6.23, 5.93, 5.59, 5.49, 5.29, 5.21, 4.84, 4.93, 4.55, 4.27, 3.88, 3.35, 3.2, 2.68, 2.15, 1.58, 0.0, -0.6, -1.26, -1.26, -0.95, 0.89, 0.45, 0.89, 0.45, -0.89, -2.24, -2.17, -1.79, -1.2, -0.6, 0.0, 0.0, 1.13, 2.23, 3.35, 3.87, 3.98, 3.58, 2.24, 0.0, -1.2, -1.79, -1.34, -0.6, 0.0, 0.57, 0.57, 0.57, 5.92, 5.92, 5.92, 6.33, 6.71, 6.97, 6.97, 7.61, 7.61, 7.33, 7.6, 7.6, 7.6, 7.33, 7.59, 7.57, 7.57, 7.57, 7.57, 8.22, 8.22, 8.22, 8.22, 8.22, 8.23, 7.96, 8.24, 8.24, 8.24, 8.24, 7.93, 8.22, 7.9, 7.9, 7.86, 7.86, 8.15, 8.15, 8.08, 8.08, 7.73, 7.51, 7.51, 7.44, 7.44, 6.87, 6.87, 6.52, 6.57, 6.23, 5.93, 5.59, 5.49, 5.29, 5.21, 4.84, 4.93, 4.55, 4.27, 3.88, 3.35, 3.2, 2.68, 2.15, 1.58, 0.0, -0.6, -1.26, -1.26, -0.95, 0.89, 0.45, 0.89, 0.45, -0.89, -2.24, -2.12, -1.79, -1.2, -0.6, 0.0, 0.0, 1.27, 2.48, 3.16, 3.35, 3.82, 3.53, 3.07, 1.7, 0.89, 0.0, 0.0, 0.45, 0.95, 1.86, 1.86, 1.86]}, {"header": {"dx": 0.06612293990616946, "dy": 0.0552356325346848, "nx": 98, "ny": 59, "la1": 35.046912555036876, "la2": 31.78801023549047, "lo1": -121.43107172385933, "lo2": -114.95102361305473, "refTime": "2026040813", "parameterCategory": 1, "parameterNumber": 3}, "data": [-11.2, -10.91, -10.4, -9.71, -8.51, -7.71, -6.8, -6.51, -6.1, -5.4, -4.6, -3.58, -3.07, -3.14, -3.16, -3.43, -3.72, -2.98, -1.98, -2.12, -0.0, 0.96, 1.94, 2.73, 2.79, 2.51, 1.88, 1.2, 0.54, 0.57, 0.95, 0.89, 0.45, 0.0, 0.0, 0.0, 0.0, 0.0, 0.0, 0.89, 1.2, 0.71, 0.0, -1.99, -4.4, -6.1, -8.39, -9.42, -10.21, -8.29, -0.54, 1.79, 1.58, 2.53, 4.09, 4.46, 4.46, 3.72, 3.64, 3.11, 2.2, 0.54, 0.0, 0.0, 1.26, 1.84, 2.0, 2.35, 2.12, 2.31, 2.31, 0.76, 0.0, 0.0, 0.0, 0.72, 0.67, 0.0, -0.0, 0.61, 0.65, 0.6, -0.0, -0.6, -0.57, -0.0, -0.0, 0.0, 0.0, -1.13, -3.55, -5.3, -6.01, -6.01, -5.0, -4.65, -4.07, -3.43, -11.41, -11.41, -10.91, -10.0, -9.2, -8.51, -7.48, -6.8, -6.28, -6.1, -5.31, -3.07, -2.24, -2.6, -2.6, -3.48, -3.15, -3.91, -3.22, -2.88, -3.17, -1.07, -0.0, 1.66, 2.79, 2.84, 2.53, 1.88, 0.53, -0.0, 0.54, 1.24, 1.26, 1.7, 1.7, 1.2, 0.59, 0.0, 0.0, 0.0, 0.0, -0.76, -3.0, -6.79, -9.8, -11.31, -11.83, -11.45, -10.89, -2.51, 1.79, 2.0, 2.21, 3.14, 4.09, 4.46, 4.46, 4.36, 3.9, 3.79, 3.0, 1.55, 1.24, 1.58, 2.21, 2.07, 2.11, 2.2, 2.26, 2.28, 3.02, 1.52, 0.0, 0.0, 0.0, 0.73, 1.52, 0.0, -0.0, 0.61, 0.65, 0.6, -0.0, -0.6, -0.57, -0.0, -0.0, 0.0, 0.0, -1.13, -3.55, -5.3, -6.01, -6.01, -5.0, -4.65, -4.07, -3.43, -11.31, -11.41, -11.31, -10.5, -9.71, -9.01, -8.0, -7.48, -7.2, -6.4, -6.1, -5.26, -3.13, -2.68, -2.24, -2.6, -3.72, -3.79, -3.72, -4.47, -3.55, -4.44, -3.14, -1.01, 0.79, 2.07, 2.53, 2.21, 0.53, -0.59, -0.59, -0.0, 0.61, 1.58, 1.79, 1.49, 1.27, 0.0, -0.63, -1.8, -3.16, -6.98, -10.86, -13.46, -15.09, -15.74, -14.7, -12.45, -3.16, 1.34, 3.07, 2.5, 2.84, 3.84, 4.27, 4.46, 4.46, 4.74, 3.79, 3.47, 2.9, 2.88, 3.07, 3.48, 3.48, 3.72, 3.55, 3.47, 3.69, 4.0, 3.78, 3.11, 0.0, -0.7, -1.33, -0.66, 0.0, 0.0, -0.4, -0.0, -0.0, -0.0, -0.63, -1.9, -1.16, -0.0, -0.0, 0.0, -0.54, -2.29, -5.04, -6.14, -6.64, -7.02, -6.06, -4.11, -2.73, -2.73, -10.4, -10.91, -11.41, -10.91, -10.62, -9.3, -8.68, -8.0, -7.48, -7.08, -7.01, -6.47, -3.98, -3.58, -3.07, -2.63, -3.07, -3.72, -4.11, -3.12, -2.44, -2.99, -4.2, -4.4, -2.23, -0.0, 1.13, 1.61, 1.24, -0.53, -2.0, -2.88, -1.94, -0.76, 0.0, 0.0, 0.0, -0.96, -3.6, -6.53, -9.9, -14.13, -15.75, -14.76, -13.14, -11.87, -9.9, -3.16, 1.7, 3.07, 3.07, 2.53, 3.14, 4.4, 4.66, 4.73, 4.46, 4.43, 3.79, 2.9, 2.9, 3.11, 3.72, 4.46, 5.09, 5.06, 4.56, 4.61, 5.52, 6.17, 5.3, 3.76, 1.58, -1.33, -3.14, -3.49, -3.6, -2.31, -1.2, -0.51, -0.54, -0.95, -1.61, -1.27, -1.23, -0.53, -0.0, -0.57, -2.23, -5.04, -6.2, -5.86, -6.68, -6.06, -3.16, -1.84, -1.11, -1.35, -10.4, -10.4, -10.91, -10.91, -10.91, -10.21, -9.2, -8.68, -7.76, -8.0, -7.31, -6.6, -4.43, -4.02, -4.02, -3.98, -3.53, -3.53, -3.78, -4.02, -3.77, -2.8, -2.12, -3.14, -2.9, -2.06, -0.79, -0.0, -0.0, -1.2, -3.07, -5.09, -8.03, -8.24, -7.15, -6.88, -6.4, -7.81, -9.85, -12.78, -14.13, -12.52, -8.93, -4.22, -3.09, -2.31, -0.74, 0.66, 2.51, 2.79, 2.51, 2.51, 3.14, 4.0, 4.66, 4.46, 3.72, 4.01, 4.56, 2.99, 2.26, 2.98, 4.46, 5.46, 6.06, 5.59, 4.56, 4.65, 6.01, 6.88, 6.09, 4.48, 4.05, 1.27, -2.15, -4.77, -5.09, -3.79, 0.0, -1.24, -2.23, -2.51, -2.0, -2.11, -1.94, -2.53, -2.6, -3.16, -5.94, -7.08, -5.78, -4.46, -4.65, -2.21, 0.0, 0.0, -0.63, -1.36, -10.16, -10.16, -10.4, -10.91, -10.91, -10.4, -9.71, -9.2, -8.68, -8.15, -7.6, -7.01, -3.82, -3.97, -4.41, -4.87, -4.43, -3.98, -4.3, -5.72, -7.18, -6.51, -5.69, -4.4, -4.21, -5.2, -5.15, -3.58, -3.95, -3.13, -2.68, -2.68, -5.64, -11.23, -12.96, -12.43, -11.4, -11.12, -13.14, -14.11, -12.39, -8.4, -2.51, 0.0, 0.72, 0.0, 0.0, 0.73, 1.47, 1.27, 1.8, 2.07, 3.14, 4.0, 3.49, 3.79, 3.43, 3.43, 3.55, 3.06, 2.26, 2.79, 4.73, 5.43, 4.65, 4.46, 4.56, 3.64, 3.43, 3.69, 2.97, 3.02, 4.8, 4.6, 1.35, -2.21, -4.24, -2.5, 0.0, -1.24, -3.16, -4.11, -4.07, -3.64, -4.46, -5.64, -7.01, -8.24, -8.3, -7.64, -6.01, -5.94, -2.21, -0.0, -0.0, -1.84, -2.2, -2.31, -10.16, -10.16, -10.16, -10.8, -10.91, -10.91, -10.4, -9.48, -8.96, -8.68, -8.0, -7.01, -3.32, -2.5, -3.35, -3.82, -4.3, -4.73, -4.92, -5.2, -7.96, -10.28, -10.9, -11.64, -11.69, -11.38, -12.79, -12.58, -10.28, -6.28, -2.68, -1.2, -2.4, -4.88, -11.18, -12.96, -12.87, -12.21, -10.23, -8.3, -8.24, -8.05, -7.31, -6.01, -5.2, -3.68, -2.28, -0.78, 0.0, 0.0, 0.0, 1.33, 3.14, 3.72, 3.49, 3.48, 2.98, 2.98, 2.2, 2.31, 2.2, 2.51, 2.51, 2.79, 2.51, 2.98, 2.9, 1.47, 0.73, 0.0, 0.0, 0.0, 1.4, 1.47, 1.54, 0.0, -1.9, 0.0, 0.6, -1.86, -4.93, -7.47, -7.6, -7.6, -9.11, -10.28, -11.4, -10.01, -8.8, -8.24, -7.81, -4.52, -0.0, -0.0, -2.24, -3.16, -4.46, -3.8, -10.16, -10.55, -10.55, -10.68, -10.91, -10.91, -10.91, -10.4, -9.48, -8.96, -8.1, -7.26, -3.74, -2.86, -2.0, -1.84, -2.84, -4.46, -5.31, -4.0, -3.58, -4.34, -7.73, -11.75, -13.23, -14.1, -14.61, -14.6, -11.77, -8.58, -5.6, -3.51, -3.51, -5.2, -8.97, -11.53, -12.5, -10.49, -7.64, -6.91, -7.4, -10.96, -15.05, -15.98, -13.8, -9.88, -5.13, -2.23, -0.76, -1.05, -0.66, 1.16, 3.14, 4.46, 4.46, 3.72, 3.38, 2.88, 2.12, 1.45, 1.47, 1.2, 1.58, 1.86, 2.17, 1.88, 1.41, 0.0, -0.73, -1.35, -0.74, -0.74, -1.58, -2.39, -2.21, -0.67, 0.57, 1.84, 1.23, 0.0, -4.27, -7.94, -9.28, -9.75, -11.18, -11.99, -10.84, -9.4, -7.89, -6.0, -4.47, -1.8, -0.0, -1.16, -2.68, -3.78, -5.21, -4.46, -10.68, -11.08, -11.08, -11.08, -11.31, -11.31, -10.91, -10.55, -9.63, -9.35, -8.51, -8.64, -7.97, -7.42, -4.46, -2.79, -3.07, -4.43, -4.36, -2.98, -1.49, -2.07, -2.51, -3.82, -4.43, -3.74, -4.57, -9.53, -10.97, -10.04, -11.64, -13.82, -14.3, -12.58, -9.83, -8.4, -9.77, -10.23, -8.37, -8.4, -10.7, -12.51, -12.72, -11.44, -10.23, -11.08, -10.7, -7.64, -4.71, -3.69, -0.96, 1.88, 3.14, 4.12, 4.43, 4.36, 3.79, 3.09, 2.18, 1.55, 0.7, 0.8, 1.26, 2.15, 2.24, 1.9, 0.72, 0.0, 0.0, -0.61, -0.73, -1.28, -3.02, -3.39, -2.63, -0.67, 0.57, 0.7, 0.73, 0.0, -1.23, -4.92, -5.81, -7.6, -8.49, -8.84, -8.24, -5.2, -3.58, -1.61, -0.57, -0.0, -1.58, -3.07, -3.39, -4.11, -5.21, -4.83, -11.08, -11.2, -11.6, -11.6, -11.2, -11.41, -11.08, -10.68, -10.16, -9.88, -9.2, -9.42, -9.39, -11.04, -10.16, -8.4, -8.0, -8.55, -8.37, -6.99, -4.98, -4.57, -3.49, -2.15, -1.6, -0.8, -2.53, -6.32, -11.17, -12.21, -14.3, -16.09, -14.75, -12.96, -11.62, -7.54, -4.89, -5.6, -5.2, -3.83, -4.3, -4.3, -1.9, 0.0, 0.0, -4.47, -8.91, -9.83, -7.92, -3.16, -0.6, 1.86, 3.14, 3.72, 4.65, 4.22, 3.6, 2.99, 2.31, 1.49, 0.69, 0.54, 2.0, 2.5, 2.68, 1.88, 1.47, 1.4, 0.57, -0.61, -1.41, -2.83, -3.53, -2.65, -1.4, -0.67, -0.7, -1.41, -2.12, -0.68, -0.69, -2.44, -3.6, -3.6, -3.2, -2.79, -2.51, -1.61, -0.6, -0.0, -0.0, -1.61, -3.35, -4.3, -4.3, -4.75, -6.01, -5.37, -11.08, -11.6, -11.6, -11.6, -11.6, -11.6, -11.2, -11.08, -10.68, -10.4, -9.48, -9.48, -9.35, -9.51, -9.26, -10.16, -10.68, -11.08, -10.18, -9.91, -9.72, -8.9, -6.21, -3.6, -2.12, -2.12, -3.74, -3.83, -7.28, -11.13, -11.62, -4.43, -1.79, -2.91, -8.19, -11.62, -9.4, -4.89, -2.15, 0.0, 0.0, 1.2, 3.58, 2.24, 2.24, 0.63, -2.15, -3.07, -2.23, -1.16, -0.6, 0.4, 1.61, 2.48, 3.64, 4.22, 3.8, 2.23, 0.77, 0.0, 0.0, 0.0, 2.0, 2.5, 2.68, 2.53, 3.11, 3.09, 0.76, -0.66, -3.0, -3.53, -3.61, -2.63, -1.32, -1.4, -2.72, -3.72, -4.46, -4.5, -3.39, -2.75, -2.51, -2.23, -0.59, 0.0, 0.0, 0.0, 0.0, 0.0, -0.6, -2.91, -4.3, -4.88, -4.77, -5.31, -5.72, -5.09, -11.08, -11.2, -11.6, -11.6, -11.6, -11.6, -11.6, -11.08, -11.08, -10.55, -10.16, -9.63, -9.63, -8.55, -6.79, -7.31, -7.31, -9.01, -9.92, -9.21, -7.09, -5.61, -4.89, -3.04, -2.12, -2.24, -2.12, -0.6, -0.0, -2.23, -2.8, -0.0, 2.91, 1.7, -2.24, -4.47, -4.47, -1.7, -0.0, 1.26, 1.58, 2.15, 2.24, 1.26, 1.6, 1.24, -0.0, -0.0, -0.0, -0.7, -2.5, -1.79, 0.0, 1.0, 1.8, 1.35, 1.4, 1.52, 0.0, -0.71, -1.45, 0.0, 1.26, 1.61, 1.79, 2.53, 3.9, 3.91, 1.41, -0.7, -2.66, -3.44, -3.44, -2.26, -1.45, -2.35, -2.99, -3.9, -6.28, -7.09, -5.95, -3.09, -2.0, -1.84, -0.59, 0.0, -0.59, -0.64, -0.67, -0.61, -1.27, -2.5, -3.58, -4.47, -5.02, -5.69, -4.73, -4.27, -11.08, -11.08, -11.6, -11.6, -11.6, -11.6, -11.6, -11.6, -11.08, -10.68, -10.55, -10.16, -10.02, -9.21, -7.23, -6.01, -5.65, -6.44, -7.9, -8.15, -6.7, -4.94, -4.17, -3.2, -2.3, -1.7, -0.0, 2.79, 2.86, 1.58, 0.51, 1.2, 2.15, 1.7, 1.2, 0.0, -0.0, 0.6, 0.6, -0.0, -0.65, -1.88, -2.6, -1.61, -1.49, -2.23, -2.3, -2.3, -2.07, -3.16, -4.27, -4.73, -4.02, -3.53, -2.21, -2.07, -0.73, 0.0, 0.0, 0.0, -0.61, -0.63, -0.0, -0.0, -0.0, 0.95, 2.23, 3.16, 2.84, 1.61, 0.0, -0.66, -1.23, -0.7, -1.45, -3.11, -2.97, -4.71, -6.23, -6.87, -5.64, -4.29, -4.61, -5.0, -1.13, -0.63, -2.12, -2.04, -1.19, -0.67, -0.67, -1.27, -1.88, -3.2, -4.27, -4.12, -3.14, -2.91, -10.68, -11.08, -11.6, -11.6, -11.6, -11.6, -11.6, -11.36, -11.08, -11.08, -10.45, -10.3, -9.92, -9.76, -8.94, -7.27, -6.06, -5.72, -6.59, -7.17, -7.17, -6.32, -5.06, -3.48, -3.09, -2.17, -0.0, 1.6, 2.2, 1.7, 1.19, 0.61, 1.0, 0.63, 0.0, 0.0, 0.45, -0.0, -0.0, -0.42, -2.53, -4.52, -8.94, -10.28, -7.4, -4.47, -3.72, -5.95, -7.37, -7.81, -8.24, -8.89, -10.28, -11.18, -9.33, -7.33, -4.24, -1.4, 0.0, 0.0, -0.57, -1.49, -1.4, -1.4, -1.9, -1.2, 0.0, 2.24, 2.68, 3.53, 3.13, 2.24, 0.63, 0.0, -1.23, -3.15, -3.8, -4.46, -5.49, -5.21, -4.43, -6.39, -6.87, -6.92, -4.41, -3.9, -3.91, -1.94, -1.11, -0.55, -0.64, -0.61, -1.27, -2.07, -2.86, -2.51, -1.24, -1.7, -10.68, -11.08, -11.36, -11.36, -11.6, -11.6, -11.75, -11.36, -11.36, -10.83, -10.83, -10.68, -10.3, -10.04, -9.59, -8.5, -7.6, -6.69, -6.67, -6.97, -7.59, -7.0, -6.06, -4.47, -4.11, -2.91, -0.57, -0.0, 1.08, 1.16, 1.19, 0.98, -0.0, -0.0, 0.0, -0.45, 0.0, -0.0, -0.0, -0.6, -2.91, -6.64, -11.18, -10.68, -3.58, -0.45, -0.63, -1.7, -4.98, -7.81, -9.16, -9.83, -9.16, -4.92, -4.02, -4.92, -4.92, -3.39, -1.2, 0.0, -1.2, -1.88, -3.16, -4.6, -5.2, -3.45, -0.8, 0.45, 1.79, 3.13, 4.02, 3.98, 2.63, 0.45, -1.24, -1.8, -1.94, -3.55, -3.55, -2.0, -2.15, -3.07, -4.22, -3.4, -3.15, -6.7, -4.07, -1.8, -0.53, 0.0, -0.61, -1.36, -1.88, -1.27, -1.27, -0.54, -1.26, -1.26, -10.68, -11.08, -11.22, -11.36, -11.36, -11.36, -11.75, -11.75, -11.36, -11.22, -11.22, -10.83, -10.41, -10.41, -9.94, -9.66, -9.13, -8.24, -7.32, -7.32, -7.32, -7.32, -6.69, -5.46, -5.1, -3.64, -1.34, -0.0, -0.0, 1.13, 1.8, 1.98, 1.2, -0.0, -0.0, 0.0, 0.0, 0.63, -0.0, -0.6, -2.6, -3.58, -3.58, -2.24, -0.0, 2.0, 2.4, 0.89, 0.0, -1.79, -4.02, -4.02, -2.54, 0.0, 0.0, -1.34, -3.51, -2.4, -0.95, -0.45, -0.63, -0.0, -1.7, -3.95, -4.66, -3.45, -0.99, -0.0, 0.89, 2.68, 3.32, 2.91, 2.24, 0.0, -0.89, -1.26, -1.2, -1.16, -1.0, 0.0, 0.0, -0.65, -0.66, -0.78, -0.7, -0.61, -1.9, 0.0, 0.0, 0.0, -0.7, -2.11, -1.8, -1.23, -1.3, -1.13, -1.61, -1.61, -10.68, -11.08, -11.22, -11.36, -11.36, -11.36, -11.75, -11.75, -11.36, -11.36, -11.22, -10.96, -10.58, -10.41, -10.15, -10.01, -9.46, -8.85, -7.95, -7.95, -7.33, -7.33, -6.98, -5.7, -4.66, -3.84, -2.23, -0.95, 0.0, -0.0, 1.86, 3.07, 2.5, 1.26, 0.95, 1.2, 1.2, 0.89, 0.0, -0.89, -2.24, -2.68, -1.34, -0.45, 0.0, 0.89, 1.58, 1.34, 1.34, 0.89, 0.0, 0.0, 0.89, 1.79, 1.79, 0.0, 0.0, 0.0, 0.0, 0.0, 0.0, 0.95, 0.95, 0.0, 0.0, 0.0, 0.0, -0.45, 0.0, 1.6, 0.8, -0.0, -0.63, -1.79, -2.17, -0.6, -0.0, -0.0, 0.63, 0.89, 0.63, 0.0, -0.66, -0.67, -1.52, -0.59, 0.57, 0.57, -0.53, -1.94, -2.6, -1.94, -2.23, -2.44, -3.0, -2.48, -2.53, -2.53, -11.08, -10.83, -11.22, -11.36, -11.36, -11.36, -11.75, -11.75, -11.75, -11.36, -11.22, -10.96, -10.96, -10.96, -10.51, -9.66, -9.72, -9.48, -8.87, -7.95, -7.61, -7.33, -6.98, -5.06, -3.49, -2.83, -2.73, -1.67, -1.08, -0.54, 1.34, 2.63, 2.91, 2.4, 2.15, 1.9, 1.58, -0.0, 0.0, -0.89, -1.79, -1.79, -1.34, -0.89, 0.0, -0.0, -0.0, 0.0, 0.0, 1.34, 2.4, 3.13, 2.24, 0.0, 0.0, 0.0, 0.0, 0.0, 0.0, 0.0, 0.0, 1.26, 1.26, 2.68, 3.13, 2.12, 0.45, -1.34, -1.79, -0.63, -1.58, -2.5, -2.5, -3.07, -1.84, -0.0, 0.99, 0.95, 0.63, -0.0, 0.0, 0.0, -0.61, -1.88, -2.0, -2.07, -2.48, 0.0, -1.8, -3.64, -3.79, -1.94, -2.48, -3.78, -3.55, -2.48, -2.53, -2.53, -11.08, -10.83, -11.22, -11.36, -11.36, -11.36, -11.75, -11.75, -11.5, -11.5, -11.36, -10.96, -10.96, -10.96, -10.96, -9.92, -9.72, -9.77, -8.56, -6.96, -6.53, -6.94, -6.7, -5.49, -4.71, -4.2, -3.4, -2.8, -2.11, -1.58, 0.63, 2.17, 2.4, 2.4, 2.5, 2.21, 1.58, 0.6, -0.0, -0.89, -0.89, 0.0, 0.0, -0.0, -0.0, -0.0, -0.0, -0.0, 0.0, 0.89, 1.34, 1.79, 1.79, 1.34, 0.0, 0.0, 0.0, 0.0, 0.0, 0.0, 0.0, 0.95, 1.34, 2.12, 2.4, 1.49, 0.0, -1.86, -2.53, -2.23, -1.58, -1.58, -1.86, -2.24, -1.24, -0.0, 0.0, 0.0, 0.0, 0.0, -0.89, -1.26, -1.88, -2.86, -3.48, -5.72, -7.33, -7.61, -6.24, -6.0, -4.12, -3.43, -3.9, -4.74, -4.43, -3.15, -3.16, -3.16, -11.08, -10.83, -11.22, -11.22, -11.36, -11.36, -11.75, -11.5, -11.5, -11.5, -11.5, -11.12, -11.34, -11.07, -11.07, -10.15, -10.23, -10.23, -8.93, -7.18, -6.87, -7.32, -7.33, -7.64, -7.64, -6.64, -5.3, -5.1, -4.47, -2.23, 0.0, 1.79, 1.86, 1.86, 2.21, 2.21, 1.88, 1.24, 0.6, -0.0, -0.0, 0.45, 0.89, 1.6, 1.26, -0.0, -0.0, -0.0, 0.95, 1.34, 1.34, 1.79, 1.79, 1.79, 0.8, 0.6, 0.0, 0.0, 0.0, 0.0, 0.0, 0.0, 0.95, 2.0, 1.49, 0.6, -0.0, -0.8, -0.61, 0.0, 0.63, 0.73, 0.76, -0.72, -2.0, -2.21, -2.5, -2.5, -1.79, -1.34, -0.89, -1.34, -1.26, -1.58, -2.53, -3.16, -3.43, -3.16, -6.01, -4.09, -4.52, -5.72, -5.69, -6.07, -6.25, -5.72, -5.09, -5.09, -11.08, -10.83, -11.22, -11.22, -11.36, -11.36, -11.75, -11.5, -11.5, -11.5, -11.5, -11.5, -11.5, -11.07, -11.44, -10.8, -10.3, -10.59, -10.41, -9.66, -8.85, -8.58, -8.56, -8.5, -8.5, -7.59, -6.32, -5.88, -4.07, -1.7, 0.0, 0.89, 1.2, 1.86, 1.9, 1.61, 1.2, 1.2, 1.24, 0.99, 0.95, 0.63, 1.2, 1.2, 0.8, -0.0, -0.0, 1.26, 1.26, 1.26, 1.79, 1.79, 1.79, 1.79, 1.34, 0.6, 0.65, 0.54, 0.0, -0.95, 0.0, 0.89, 1.9, 1.2, 0.6, 0.6, -0.0, 0.0, 1.24, 2.84, 4.65, 5.28, 2.99, 0.0, -3.8, -6.7, -4.93, -4.0, -3.13, -1.86, -1.2, -0.89, 0.0, 0.89, 1.34, 0.0, -0.45, -0.63, -0.59, -1.8, -3.78, -7.07, -6.7, -5.47, -7.14, -7.33, -6.25, -6.25, -10.83, -10.83, -11.22, -11.22, -11.36, -11.36, -11.75, -11.5, -11.88, -11.5, -11.5, -11.5, -11.5, -11.62, -11.35, -11.52, -10.88, -10.65, -10.8, -10.8, -10.01, -9.13, -9.08, -9.08, -8.53, -7.93, -6.69, -5.06, -2.15, -1.34, 0.0, 0.45, 0.63, 1.26, 1.24, 1.24, 1.0, 1.0, 1.24, 0.99, 1.26, 1.26, 0.95, 0.6, 0.8, 0.57, -0.0, 1.58, 1.58, 1.26, 1.26, 1.79, 1.34, 1.34, 0.0, 0.0, 1.26, 1.26, 0.0, -0.45, 0.0, 1.34, 1.7, 0.6, 0.6, 0.6, -0.0, -0.0, 0.89, 2.6, 2.86, 3.07, 2.44, 1.16, -5.86, -8.48, -8.0, -5.72, -3.58, -1.9, -1.24, -1.26, -0.0, 1.26, 1.58, 1.0, -0.57, -1.79, -2.86, -2.66, -5.52, -7.28, -6.01, -3.72, -3.87, -4.77, -5.44, -5.44, -10.83, -10.83, -11.22, -11.22, -11.36, -11.36, -11.75, -11.5, -11.88, -11.88, -11.5, -11.5, -11.62, -11.62, -11.35, -11.44, -11.23, -11.23, -10.88, -10.36, -9.77, -8.85, -8.5, -9.02, -9.08, -8.85, -7.61, -5.71, -2.21, -1.2, -0.63, 0.0, 0.0, 0.63, 0.95, 0.99, 1.24, 0.54, 1.24, 0.99, 1.26, 1.26, 1.26, 1.26, 1.24, 1.2, 1.0, 1.2, 1.58, 1.58, 1.26, 0.95, 1.34, 1.34, 1.34, 1.34, 1.34, 1.34, 0.0, -0.45, 0.0, 0.89, 1.34, 0.89, 1.2, 1.2, 0.89, 0.0, 0.0, 0.0, 0.0, 0.0, 1.79, 0.89, -2.68, -6.58, -7.56, -6.4, -4.11, -1.7, -0.54, -1.24, -0.57, -0.0, -0.0, -0.57, -2.4, -4.02, -5.69, -7.59, -7.8, -7.59, -3.79, -0.6, -0.89, -3.39, -4.8, -4.8, -10.83, -10.83, -11.22, -11.22, -11.22, -11.36, -11.36, -11.5, -11.88, -11.62, -11.62, -11.88, -11.62, -11.62, -11.72, -11.8, -11.52, -10.94, -10.88, -10.36, -9.8, -8.58, -7.93, -8.19, -8.78, -9.13, -8.53, -6.95, -4.11, -1.9, -0.99, -0.6, 0.0, 0.0, -0.0, 0.6, 0.57, 0.71, 0.71, 0.57, 0.99, 1.24, 1.58, 1.9, 1.88, 1.6, 1.4, 1.0, 1.58, 1.58, 1.26, 0.95, 0.95, 1.79, 1.34, 1.34, 0.8, 0.63, 0.0, 0.0, 0.0, 0.0, 0.0, 0.89, 1.7, 1.79, 1.34, 0.0, 0.0, -0.45, -1.79, -1.34, 0.0, 0.45, 0.0, -3.13, -4.98, -4.98, -3.6, 0.0, 0.6, -0.0, -0.99, -1.86, -2.15, -2.91, -3.98, -5.36, -6.13, -5.09, -6.24, -3.72, -1.26, 0.95, 0.0, -2.53, -3.72, -3.72, -10.83, -10.83, -11.22, -11.22, -11.22, -11.22, -11.36, -11.5, -11.88, -11.62, -11.62, -11.62, -11.62, -11.99, -11.72, -11.8, -11.52, -11.52, -11.23, -10.69, -10.4, -9.21, -8.24, -7.9, -7.9, -8.82, -8.82, -7.81, -5.65, -3.48, -2.23, -1.2, -0.99, -0.63, 0.0, -0.0, 0.6, 0.57, 0.57, 0.57, 0.57, 1.24, 1.2, 1.88, 1.84, 1.8, 1.27, 1.84, 2.23, 2.23, 2.21, 1.26, 1.26, 1.26, 1.26, 1.26, 1.34, 0.63, -0.0, -0.89, 0.0, 0.0, -0.0, 1.2, 1.7, 1.34, 1.34, 1.34, 0.45, -1.2, -2.91, -2.79, -1.49, 0.0, 0.0, -0.6, -1.9, -2.21, -0.71, 1.2, 1.49, 0.57, -0.0, -1.49, -2.91, -3.39, -4.43, -4.92, -4.77, -3.87, -1.34, -0.63, 0.0, 0.0, -0.59, -1.8, -2.51, -2.51, -10.83, -10.83, -11.22, -11.22, -11.22, -11.22, -11.36, -11.5, -11.88, -11.62, -11.99, -11.62, -11.62, -11.99, -11.72, -11.72, -11.8, -11.52, -10.94, -10.94, -10.72, -9.82, -9.19, -7.95, -7.93, -8.22, -8.19, -7.51, -6.23, -5.01, -3.49, -2.22, -1.61, -1.24, -0.95, 0.0, -0.0, 0.6, 0.6, 0.57, 0.57, 0.57, 1.0, 1.2, 1.84, 1.6, 1.6, 1.6, 2.51, 2.84, 2.84, 2.79, 1.9, 1.9, 2.21, 2.8, 1.9, 0.89, 0.0, -0.89, -0.63, 0.0, 0.89, 1.34, 1.34, 1.34, 1.2, 1.2, -0.0, -0.89, -2.4, -3.22, -2.23, -1.27, 0.0, 0.59, 0.0, -1.2, 0.0, 1.86, 1.2, 0.54, -0.0, -0.6, -2.15, -2.68, -3.53, -4.02, -4.02, -2.91, -2.15, 0.0, -1.16, -1.76, -1.94, -1.23, -1.11, -1.11, -10.83, -10.83, -11.22, -11.22, -11.22, -11.22, -11.36, -11.12, -11.88, -12.16, -12.16, -11.99, -11.99, -12.16, -11.35, -11.16, -11.23, -11.8, -11.52, -11.28, -10.99, -10.72, -9.8, -8.58, -7.95, -7.61, -7.27, -6.87, -5.93, -5.01, -4.74, -4.12, -3.49, -2.6, -1.84, -1.9, -1.26, -0.63, 0.0, -0.0, -0.0, -0.0, -0.0, 0.54, 1.16, 1.6, 1.6, 2.23, 2.51, 2.84, 2.84, 3.16, 3.16, 2.86, 1.9, 1.58, 1.9, 0.95, 0.0, 0.0, 0.0, 0.0, 1.6, 1.7, 1.34, 0.32, 0.32, -0.0, -0.63, -1.79, -2.91, -3.72, -3.78, -2.73, -0.57, 0.57, 1.6, 0.0, 0.63, 1.58, 0.65, -0.0, -0.0, -0.0, -1.24, -3.07, -3.39, -3.39, -2.5, -2.51, -2.84, -3.09, -2.84, -3.15, -3.12, -2.66, -1.94, -1.94, -10.83, -10.83, -10.83, -11.22, -11.22, -11.22, -11.22, -11.12, -11.5, -12.16, -12.16, -12.16, -12.16, -11.9, -11.72, -11.16, -10.88, -11.23, -10.94, -11.28, -10.99, -10.72, -10.12, -9.5, -8.58, -7.95, -7.27, -6.28, -5.01, -5.01, -4.74, -4.75, -3.84, -3.22, -2.86, -2.23, -1.61, -1.26, -0.45, -0.0, -0.0, -0.0, -0.0, -0.0, 0.71, 1.2, 1.84, 2.23, 2.51, 2.51, 2.84, 2.84, 3.43, 3.48, 3.48, 1.9, 1.9, 0.63, 0.32, -0.0, -0.0, 0.0, 0.63, 1.2, 0.89, 0.0, 0.0, 0.0, -0.89, -1.79, -2.17, -2.79, -3.78, -4.09, -2.79, -0.57, 0.63, 0.45, 0.45, 0.45, 0.63, 0.42, 0.42, 0.6, -0.0, -2.21, -3.78, -2.48, -2.51, -2.51, -2.53, -2.91, -3.6, -4.37, -4.41, -3.78, -3.38, -3.38, -10.83, -10.83, -10.83, -11.22, -11.22, -11.22, -11.22, -11.5, -11.5, -11.88, -11.9, -11.9, -11.9, -11.9, -11.72, -11.23, -10.88, -10.65, -10.88, -10.94, -10.94, -10.72, -10.4, -9.8, -9.19, -8.87, -8.22, -6.59, -5.59, -4.68, -4.74, -4.45, -4.12, -3.84, -3.49, -2.86, -2.23, -1.61, -1.26, -0.45, -0.63, -0.6, -0.6, -0.0, -0.0, 1.9, 2.21, 1.61, 2.23, 2.23, 2.84, 2.84, 3.16, 3.16, 3.16, 2.86, 1.58, 1.6, 0.95, 0.6, -0.0, -0.0, 0.0, 0.0, 0.45, 0.89, 0.45, 0.0, -0.0, -1.2, -1.79, -1.84, -2.44, -4.75, -5.02, -3.58, -1.49, -0.0, 0.0, 0.0, 0.0, 0.0, 0.63, 0.6, 0.63, -0.57, -2.23, -2.48, -2.51, -2.53, -1.61, -2.4, -3.58, -4.6, -4.37, -4.75, -4.74, -4.74, -10.83, -10.83, -10.83, -11.22, -11.22, -11.22, -10.96, -11.5, -11.5, -11.88, -12.16, -12.27, -12.27, -11.9, -12.27, -11.23, -10.88, -10.65, -10.65, -10.36, -10.36, -10.69, -10.09, -10.09, -9.8, -9.19, -8.53, -7.23, -5.65, -5.01, -4.43, -4.12, -4.12, -3.84, -3.83, -3.49, -2.86, -2.23, -1.9, -1.6, -0.89, -0.89, -0.63, -0.6, -0.0, 0.57, 0.95, 1.9, 1.88, 2.21, 2.53, 2.53, 2.84, 3.16, 2.86, 2.86, 2.86, 3.16, 1.61, 1.16, 0.61, -0.0, -0.63, -0.95, 0.95, 1.6, 1.2, 0.0, 0.0, -0.63, -2.68, -3.14, -2.11, -2.99, -5.94, -4.3, -2.21, -0.51, -0.0, -0.63, -0.57, -0.95, 0.0, -0.0, 0.6, 0.8, -0.0, -1.0, -1.58, -1.24, -1.24, -1.58, -3.09, -4.43, -5.02, -5.86, -5.65, -5.65, -10.83, -10.83, -10.83, -11.22, -11.22, -10.96, -10.96, -11.5, -11.5, -11.88, -11.62, -11.9, -12.27, -12.27, -12.27, -11.44, -10.88, -10.65, -10.65, -10.65, -10.36, -10.09, -9.77, -9.77, -9.48, -9.48, -8.53, -7.55, -5.69, -5.06, -4.45, -4.12, -4.12, -3.84, -4.12, -3.83, -3.49, -3.16, -2.79, -2.15, -1.7, -1.34, -0.89, -0.0, -0.0, -0.0, -0.0, 0.71, 1.61, 1.88, 2.53, 2.53, 2.79, 2.84, 2.84, 2.86, 2.86, 2.86, 2.84, 1.33, -0.0, -0.54, -0.99, -0.0, 0.63, 1.2, 0.63, -0.63, -0.95, -1.49, -3.39, -3.82, -2.51, -0.69, -1.5, -4.5, -2.79, -0.0, -0.0, -0.89, -1.49, -1.49, -0.8, 0.0, -0.0, 0.57, 1.24, 1.24, 0.57, -0.0, -0.0, -1.26, -2.91, -4.47, -5.67, -6.85, -6.8, -6.8, -10.83, -10.83, -10.83, -10.83, -10.96, -10.96, -10.96, -11.5, -11.5, -11.88, -11.62, -12.16, -12.27, -12.27, -12.0, -11.44, -10.88, -10.65, -10.65, -10.65, -10.36, -10.36, -10.09, -9.77, -9.17, -9.17, -8.82, -7.55, -5.37, -5.08, -5.08, -4.75, -4.47, -3.85, -4.12, -4.12, -4.11, -4.07, -3.43, -2.79, -2.4, -2.12, -1.2, 0.0, -0.0, -0.65, -0.53, -0.0, 1.2, 1.88, 2.21, 2.53, 2.53, 2.53, 2.53, 2.84, 2.23, 2.22, 2.2, 1.16, -0.0, -1.2, -0.57, -0.0, 1.2, 1.7, 0.89, -0.89, -2.23, -2.53, -2.79, -3.07, -3.04, -1.27, -0.74, -2.31, -2.66, -0.6, -0.0, -0.89, -1.26, -0.99, -0.57, -0.95, -0.89, -0.0, 0.57, 1.88, 1.88, 1.9, 1.26, -0.0, -2.91, -4.44, -5.81, -6.58, -6.85, -6.85, -10.83, -10.83, -10.83, -10.83, -10.96, -10.96, -10.96, -11.34, -11.5, -11.5, -11.62, -12.16, -12.27, -12.27, -11.8, -11.8, -10.88, -10.88, -10.65, -10.65, -10.36, -10.36, -10.09, -9.77, -9.17, -9.13, -8.5, -7.81, -7.17, -6.06, -5.71, -5.1, -5.1, -4.47, -4.47, -4.45, -4.43, -4.37, -4.07, -3.43, -3.07, -2.15, -1.49, -0.89, -0.0, -0.0, -0.0, -0.0, 1.0, 1.61, 1.88, 2.21, 2.21, 2.21, 2.21, 2.53, 2.53, 2.23, 1.76, 0.55, -0.0, -0.57, -0.0, 0.6, 1.86, 2.4, 2.12, 0.45, -0.95, -1.58, -0.6, -0.89, -2.68, -3.72, -2.9, -1.52, -1.23, -0.6, 0.0, 0.0, 0.0, 0.0, -0.51, -0.61, -1.61, -1.27, -0.0, 1.24, 1.88, 2.21, 2.15, 0.6, -1.86, -4.11, -5.33, -5.77, -5.67, -5.67, -10.3, -10.3, -10.83, -10.83, -10.58, -10.96, -10.96, -11.34, -11.5, -11.5, -11.62, -11.99, -11.9, -12.0, -11.8, -11.8, -11.44, -10.88, -10.65, -10.88, -10.69, -10.69, -10.36, -9.77, -9.17, -8.53, -8.45, -8.15, -7.81, -7.17, -6.28, -5.69, -5.71, -5.38, -5.1, -5.06, -5.01, -4.71, -4.65, -4.55, -3.88, -3.07, -2.15, -1.6, -0.89, -0.6, -0.0, -0.0, 0.71, 1.24, 1.9, 1.9, 2.5, 2.5, 2.21, 2.21, 1.88, 1.88, 1.84, 1.13, -0.0, -0.0, -0.0, 1.26, 1.24, 1.58, 1.9, 0.99, -0.0, -0.0, -0.0, 0.0, -2.12, -5.05, -5.64, -2.72, -0.57, 0.0, 1.6, 1.76, 1.35, 0.0, -0.63, -1.23, -1.8, -1.95, -1.2, -0.0, 1.24, 2.15, 2.5, 1.58, -0.0, -3.07, -4.77, -5.36, -5.78, -5.78, -10.3, -10.3, -10.68, -10.83, -10.58, -10.96, -10.96, -10.96, -11.5, -11.24, -11.62, -11.62, -11.9, -12.27, -12.0, -11.8, -11.8, -10.88, -10.88, -11.23, -10.94, -10.94, -10.69, -10.36, -9.77, -9.13, -8.45, -8.38, -8.15, -7.23, -6.32, -5.71, -5.71, -5.72, -5.71, -5.08, -5.06, -5.01, -4.94, -4.65, -4.0, -3.72, -2.79, -2.4, -1.2, -0.89, -0.63, -0.0, 0.8, 0.99, 1.58, 1.9, 1.9, 1.9, 1.9, 1.61, 1.61, 1.61, 1.61, 1.2, 0.65, -0.0, -0.0, 0.8, 0.8, -0.0, 0.71, 0.57, -0.0, -0.0, -0.6, -0.89, -2.21, -4.56, -6.14, -2.82, 0.0, 2.35, 4.46, 3.09, 1.3, 0.0, -0.57, -1.23, -1.27, -1.6, -1.58, -0.63, 0.0, 1.26, 1.58, 1.9, 0.8, -1.26, -3.87, -5.33, -6.26, -6.26, -10.3, -10.3, -10.3, -10.68, -10.41, -10.58, -10.96, -10.96, -11.34, -11.24, -11.62, -11.62, -11.72, -12.09, -12.0, -12.16, -11.8, -10.88, -10.88, -11.23, -10.94, -11.28, -10.94, -10.69, -10.36, -9.72, -8.78, -8.73, -8.15, -7.55, -6.92, -6.32, -6.04, -6.04, -5.72, -5.41, -5.65, -5.35, -5.29, -4.94, -4.65, -4.0, -3.35, -2.21, -1.58, -1.6, -0.89, -0.0, -0.0, 0.6, 1.26, 1.86, 1.86, 1.58, 1.58, 1.9, 1.49, 1.2, 1.2, 1.61, 1.2, 1.2, -0.0, 0.57, -0.0, -0.0, 0.57, 0.57, 0.6, -0.0, -0.63, -1.2, -0.71, -0.67, -1.47, -1.44, 0.0, 2.31, 2.35, 1.36, 0.0, 0.0, -0.59, -1.16, -0.61, -0.61, -0.65, -0.57, 0.0, 0.0, 0.63, 0.99, 0.57, -0.0, -2.0, -4.3, -6.23, -6.23, -10.3, -10.3, -10.3, -10.68, -10.41, -10.58, -10.96, -10.96, -11.07, -11.24, -11.62, -11.62, -11.72, -11.72, -12.0, -12.37, -11.8, -11.23, -10.65, -11.23, -10.94, -11.28, -10.94, -10.69, -10.36, -10.06, -9.08, -8.78, -8.38, -7.81, -7.23, -6.95, -6.95, -6.34, -6.04, -5.71, -5.69, -5.65, -5.01, -4.94, -5.21, -4.29, -4.0, -1.9, -2.21, -1.9, -1.49, -0.63, 0.0, -0.0, 0.95, 1.6, 1.26, 1.26, 1.24, 1.24, 1.24, 1.24, 1.61, 1.9, 1.9, 1.2, -0.0, -0.0, -0.0, -0.0, 1.26, 1.58, 1.26, -0.0, -0.0, -0.0, 0.0, 0.66, 0.0, -1.47, -2.12, -2.18, -3.06, -2.06, -1.23, -0.51, -0.54, -0.54, 0.0, 0.0, 0.0, 0.0, 0.0, 0.0, 0.0, -0.0, -0.0, -0.0, -0.57, -3.07, -3.72, -5.51, -10.3, -10.3, -10.3, -10.3, -10.41, -10.41, -10.96, -10.96, -11.07, -11.24, -11.62, -11.62, -11.62, -11.72, -11.8, -12.16, -11.87, -11.8, -10.88, -10.88, -11.23, -10.94, -10.94, -10.69, -10.65, -10.01, -9.59, -9.3, -8.73, -8.15, -7.81, -7.27, -7.27, -6.67, -6.34, -6.32, -5.71, -5.65, -5.59, -5.29, -4.94, -5.21, -4.29, -2.5, -2.51, -2.23, -2.53, -1.58, -0.95, 0.0, 0.89, 1.2, 1.2, 1.26, 1.26, 1.26, 0.99, 1.24, 1.9, 1.9, 1.9, 1.24, -0.0, -0.0, -0.0, -0.0, 1.0, 1.58, 0.95, -0.0, -0.0, -0.0, 0.0, 0.0, 0.0, -0.74, -1.88, -4.94, -6.44, -5.52, -2.66, -1.6, -1.2, -0.65, 0.0, 0.0, 0.57, 0.63, 0.0, 0.0, -0.54, -0.89, -0.63, -0.0, -0.57, -1.88, -3.14, -3.72, -9.92, -9.92, -10.3, -10.3, -10.41, -10.41, -10.96, -10.96, -11.07, -11.07, -11.24, -11.62, -11.62, -11.72, -11.8, -11.8, -11.87, -11.52, -11.23, -10.65, -10.65, -10.88, -10.94, -10.36, -10.3, -10.01, -9.37, -9.3, -8.73, -8.38, -8.15, -7.86, -7.59, -7.59, -6.67, -6.34, -6.32, -5.69, -5.65, -5.59, -5.29, -4.94, -4.65, -4.4, -2.5, -2.86, -3.16, -2.5, -1.49, -0.89, 0.0, 0.89, 0.63, 0.95, 0.95, 0.6, 0.8, 1.24, 1.24, 1.58, 1.58, 1.86, 1.26, 0.89, -0.0, 1.26, 0.57, 0.42, -0.0, 0.0, 0.0, -0.63, -1.79, -2.15, 0.0, 1.47, 0.76, -0.67, -4.46, -4.87, -3.08, -1.76, -1.27, 0.0, 0.0, 0.63, 0.61, 0.61, 0.61, 0.0, -0.59, -1.58, -1.79, -1.2, -1.26, -1.9, -2.5, -3.14, -9.76, -9.76, -10.3, -10.3, -10.04, -10.41, -10.79, -10.7, -11.07, -11.07, -11.24, -11.62, -11.62, -11.72, -12.09, -11.8, -11.87, -11.87, -11.23, -10.88, -10.3, -10.3, -10.65, -10.65, -10.3, -9.94, -9.3, -8.94, -8.73, -8.38, -8.38, -7.86, -8.19, -7.3, -7.27, -6.95, -6.32, -6.28, -5.65, -5.59, -5.59, -5.29, -5.21, -4.93, -4.9, -2.86, -3.43, -2.68, -2.12, -1.2, 0.0, 0.0, 0.45, 0.63, 0.63, 0.63, 0.95, 1.26, 1.26, 1.58, 1.86, 1.86, 0.95, 1.58, 1.79, 1.34, 0.63, -0.0, -0.0, -0.0, -0.0, -0.95, -2.24, -2.6, -1.4, 0.73, 1.4, 0.0, -1.19, -2.48, -2.51, -1.13, 0.0, 0.67, 1.36, 0.64, 0.59, 0.0, 0.0, 0.0, 0.0, -1.2, -2.68, -2.68, -2.24, -2.17, -2.0, -2.0, -9.76, -9.76, -9.76, -10.3, -10.04, -10.41, -10.79, -10.7, -11.07, -11.07, -11.07, -11.62, -11.62, -11.72, -11.72, -11.8, -11.8, -11.87, -11.52, -11.23, -10.88, -10.3, -10.3, -10.65, -10.3, -9.94, -9.3, -8.94, -9.01, -8.65, -8.38, -8.19, -8.19, -7.3, -7.59, -7.23, -6.92, -6.32, -5.69, -5.93, -5.59, -5.49, -4.94, -4.71, -4.65, -4.55, -3.2, -2.63, -2.17, -1.34, -0.89, 0.0, 0.0, 0.0, 0.0, 0.0, 0.63, 1.2, 1.2, 1.6, 1.49, 1.86, 1.86, 0.95, 2.24, 1.79, 1.34, -0.0, -0.0, -0.0, -0.0, -0.95, -2.24, -2.68, -3.04, -2.15, -1.19, 0.0, -0.57, -0.65, 0.0, 1.11, 1.36, 2.06, 1.32, 0.71, 0.0, 0.0, 0.0, -0.72, -0.61, -1.13, -2.6, -3.13, -3.13, -2.68, -2.68, -2.68, -9.76, -9.76, -9.76, -10.13, -10.04, -10.41, -10.79, -10.7, -11.07, -11.07, -11.07, -11.24, -11.62, -11.72, -11.72, -11.8, -11.8, -11.52, -11.52, -10.94, -11.23, -10.65, -10.06, -10.3, -10.59, -9.94, -9.86, -8.94, -9.21, -8.65, -8.65, -8.38, -8.19, -7.9, -7.59, -7.55, -6.95, -6.59, -6.28, -5.65, -5.59, -5.86, -4.94, -4.71, -4.11, -3.48, -2.79, -2.4, -2.17, -1.7, -1.2, -0.89, 0.0, 0.0, 0.0, 0.0, 0.89, 0.89, 1.34, 1.2, 1.6, 1.7, 1.86, 2.0, 2.24, 1.79, 1.34, 1.34, 0.0, 0.0, -0.0, -0.95, -2.17, -2.68, -3.82, -3.88, -2.86, -1.3, 0.0, 1.23, 3.79, 5.46, 4.23, 2.89, 1.4, 0.0, 0.0, 0.0, -0.67, -1.3, -0.61, -1.11, -2.0, -3.32, -3.32, -3.07, -3.07, -3.07, -9.76, -9.76, -9.76, -10.13, -10.04, -10.41, -10.51, -10.7, -11.07, -11.07, -11.07, -11.24, -11.62, -11.35, -11.72, -11.8, -11.8, -11.8, -11.52, -10.94, -10.94, -10.65, -10.3, -10.3, -10.3, -10.23, -9.86, -9.3, -9.21, -8.65, -8.65, -8.38, -8.19, -8.19, -7.59, -7.27, -7.23, -6.92, -6.62, -5.95, -5.65, -5.59, -5.29, -4.71, -4.37, -3.79, -3.43, -2.79, -2.4, -1.86, -1.26, -0.6, 0.0, 0.0, 0.0, 0.0, 0.45, 0.89, 1.34, 1.34, 1.34, 1.7, 2.12, 2.0, 2.4, 1.79, 0.0, 0.45, 0.89, 0.6, -0.0, -0.6, -1.7, -2.68, -3.32, -3.07, -2.23, -1.19, 0.0, 4.5, 8.09, 7.6, 5.02, 2.82, 0.65, 0.0, 0.0, 0.0, -0.67, -1.35, -1.98, -2.15, -2.6, -2.5, -2.79, -2.86, -2.86, -2.86, -9.76, -9.76, -9.76, -9.76, -9.86, -10.41, -10.15, -10.51, -11.07, -11.07, -11.07, -11.07, -11.62, -11.62, -11.72, -12.09, -11.8, -11.8, -11.8, -11.52, -10.94, -10.94, -10.36, -10.3, -10.3, -10.23, -9.94, -9.5, -9.21, -9.21, -8.65, -8.38, -7.86, -8.19, -7.86, -7.27, -7.55, -7.51, -6.92, -6.28, -5.69, -5.65, -5.35, -5.01, -4.71, -4.11, -3.79, -2.86, -2.23, -1.88, -1.49, -1.24, -0.57, 0.0, 0.0, 0.0, 0.0, 0.89, 0.89, 1.34, 1.34, 1.6, 2.17, 2.4, 2.12, 1.79, 0.0, 0.0, 0.95, 1.88, 1.16, -0.0, -0.71, -1.26, -1.34, -0.89, -0.6, 0.0, 1.88, 5.69, 7.97, 7.12, 4.65, 2.06, 1.32, 0.0, 0.0, -0.64, -1.41, -1.98, -1.0, -1.49, -2.24, -2.17, -1.9, -1.88, -1.88, -1.88, -9.76, -9.76, -9.76, -9.76, -9.86, -10.41, -10.15, -10.51, -11.07, -11.07, -11.07, -11.07, -11.62, -11.62, -11.72, -11.72, -11.72, -11.16, -10.88, -10.88, -10.94, -10.69, -10.36, -10.06, -10.59, -10.51, -9.94, -9.86, -9.3, -9.21, -8.65, -8.38, -8.15, -7.86, -7.86, -7.27, -7.55, -7.51, -6.92, -6.59, -6.28, -5.69, -5.65, -5.06, -4.74, -4.43, -4.11, -3.49, -2.86, -2.23, -1.84, -1.16, -0.65, -0.54, 0.0, 0.0, 0.0, 0.63, 0.89, 0.89, 1.34, 1.79, 2.0, 2.8, 2.6, 2.24, 1.79, 1.34, -0.0, -0.0, 1.16, 0.59, -0.0, -0.0, -0.0, 0.57, 0.89, 1.61, 3.43, 4.66, 5.09, 5.18, 4.65, 4.8, 3.14, 1.3, 0.0, -1.19, -1.94, -1.24, 0.0, 0.0, -1.34, -1.7, -1.86, -1.58, -1.58, -1.58, -9.76, -9.76, -9.76, -9.76, -9.86, -10.41, -10.15, -10.51, -11.07, -11.07, -11.07, -11.07, -11.62, -11.62, -11.99, -11.72, -11.16, -10.8, -10.59, -10.3, -10.65, -10.36, -9.77, -9.72, -10.01, -10.3, -9.94, -9.86, -9.3, -8.94, -9.01, -8.38, -8.15, -7.86, -7.59, -7.55, -7.55, -7.51, -7.17, -6.92, -6.59, -6.28, -5.69, -5.08, -5.06, -4.45, -4.12, -3.83, -3.49, -2.44, -1.76, -1.8, -1.13, -1.16, -0.54, 0.0, 0.0, 0.0, 0.63, 0.89, 0.89, 1.34, 2.0, 2.5, 2.4, 2.4, 2.24, 2.24, 0.0, -0.0, -0.0, 1.16, 0.59, 0.61, 1.2, 1.24, 1.7, 2.63, 3.87, 4.52, 3.78, 4.46, 6.62, 7.46, 5.46, 2.6, 1.23, 0.0, 0.0, 0.0, 0.45, 0.63, -0.0, -1.26, -1.86, -1.58, -1.58, -1.58, -9.38, -9.38, -9.76, -9.76, -9.86, -10.23, -10.15, -10.51, -10.87, -11.07, -11.07, -11.07, -11.62, -11.62, -11.99, -11.44, -10.8, -10.8, -10.8, -10.65, -10.65, -10.09, -9.77, -9.77, -9.72, -10.01, -9.94, -9.86, -9.3, -8.94, -9.01, -8.38, -8.15, -7.86, -7.59, -7.55, -7.55, -7.51, -7.51, -6.92, -6.92, -6.32, -6.01, -5.71, -5.38, -4.75, -4.45, -3.84, -3.49, -2.84, -2.2, -1.76, -1.8, -1.13, -0.65, -0.71, 0.0, 0.0, 0.0, 0.63, 0.89, 1.34, 1.86, 2.5, 2.5, 1.9, 1.79, 1.34, 0.89, 0.0, 0.0, 0.6, 1.2, 1.2, 1.0, 1.58, 2.0, 2.63, 3.13, 3.2, 3.16, 3.15, 6.01, 6.88, 4.8, 2.6, 0.61, 0.0, 0.89, 0.63, 0.89, 0.99, 0.57, -0.8, -1.24, -1.58, -1.58, -1.58, -9.38, -9.38, -9.76, -9.76, -9.86, -9.86, -10.15, -10.51, -10.51, -11.07, -11.07, -11.07, -11.62, -11.62, -11.62, -11.07, -11.07, -10.8, -11.16, -11.23, -11.23, -10.69, -10.69, -10.09, -9.77, -9.72, -9.66, -9.59, -9.3, -8.94, -8.73, -8.38, -8.38, -7.86, -7.59, -7.55, -7.23, -7.51, -7.51, -6.92, -6.92, -6.59, -6.32, -5.71, -5.1, -5.08, -4.47, -3.85, -3.47, -2.82, -2.84, -2.2, -1.76, -1.84, -1.4, -1.0, -0.57, 0.0, 0.0, 0.0, 0.63, 0.89, 1.26, 1.88, 1.88, 1.9, 1.26, 1.2, 1.2, 0.63, 0.0, 0.45, 1.2, 0.65, 0.54, 1.0, 1.58, 2.4, 2.17, 2.6, 2.79, 3.72, 3.78, 3.9, 2.9, 0.61, 1.13, 0.6, 0.0, 0.0, 0.0, 0.63, 0.99, -0.0, -1.24, -1.61, -1.61, -1.61, -9.38, -9.38, -9.76, -9.76, -9.86, -9.86, -10.15, -10.51, -10.51, -10.8, -11.07, -11.07, -11.62, -11.62, -11.07, -11.07, -11.07, -11.16, -11.16, -11.23, -11.23, -10.94, -10.94, -10.69, -10.36, -10.06, -10.01, -9.66, -9.37, -9.02, -8.73, -8.73, -8.38, -8.15, -7.86, -7.55, -7.55, -7.51, -7.17, -6.92, -6.92, -6.59, -6.32, -5.71, -5.71, -5.1, -4.75, -4.1, -4.12, -3.47, -2.82, -2.84, -2.44, -1.84, -1.61, -1.2, -1.24, -0.57, 0.0, 0.0, 0.0, 0.45, 1.26, 1.2, 1.88, 1.24, 1.26, 0.95, 0.6, 0.63, 0.63, 0.89, 1.34, 1.79, 0.54, 0.54, 1.24, 1.58, 1.86, 1.79, 2.4, 2.79, 2.84, 1.94, 0.67, 0.61, 2.5, 1.34, -0.89, -1.86, -1.58, 0.0, 0.95, -0.0, -1.24, -1.61, -1.61, -1.61, -9.38, -9.38, -9.38, -9.76, -9.5, -9.86, -9.94, -10.51, -10.51, -10.8, -10.8, -11.44, -11.62, -11.62, -11.07, -11.07, -11.07, -11.16, -11.16, -11.23, -11.23, -11.23, -10.94, -10.69, -10.36, -10.3, -9.72, -10.01, -9.42, -9.37, -8.78, -8.73, -8.73, -7.86, -7.86, -7.59, -7.55, -7.23, -7.17, -6.92, -6.59, -6.32, -6.32, -5.71, -5.71, -5.1, -4.75, -4.47, -3.85, -3.47, -3.22, -2.84, -2.86, -2.23, -1.84, -1.88, -1.2, -0.71, -0.8, 0.0, 0.0, 0.0, 0.63, 1.0, 1.4, 1.24, 1.26, 0.63, -0.0, -0.0, -0.0, -0.0, 0.45, 1.34, 0.95, 0.6, 1.26, 1.49, 1.7, 1.34, 1.7, 2.15, 2.23, 1.44, 0.0, 1.84, 3.58, 2.17, -0.89, -2.63, -2.49, -0.8, -0.0, -0.0, -1.24, -1.49, -1.49, -1.49, -9.48, -9.48, -9.38, -9.76, -9.5, -9.86, -9.94, -10.51, -10.51, -10.8, -10.8, -11.16, -11.62, -11.24, -11.07, -11.07, -11.07, -11.16, -11.16, -11.16, -10.88, -11.23, -10.69, -10.36, -10.65, -10.3, -9.72, -10.01, -9.42, -9.08, -9.37, -8.78, -8.45, -8.19, -7.86, -7.59, -7.55, -7.23, -7.51, -6.92, -6.59, -6.32, -6.01, -5.71, -5.41, -5.38, -5.08, -4.47, -3.85, -4.12, -3.47, -3.49, -2.86, -2.48, -2.23, -1.88, -1.61, -1.24, -0.57, -0.6, 0.0, 0.0, 0.0, 0.57, 0.65, 0.65, 0.8, 0.63, -0.0, -0.0, -0.0, -0.0, -0.0, 0.0, 0.63, 0.95, 0.95, 0.63, 0.89, 0.89, 0.89, 1.49, 1.94, 2.06, 1.19, 2.63, 3.82, 2.91, -0.0, -2.68, -2.68, -1.34, -0.0, -0.57, -1.24, -1.24, -1.24, -1.24, -9.48, -9.48, -9.21, -9.76, -9.5, -9.86, -9.94, -10.51, -10.23, -10.8, -10.8, -11.07, -11.07, -10.7, -10.7, -10.7, -11.44, -11.16, -11.16, -11.16, -10.88, -11.23, -10.94, -10.36, -10.65, -10.06, -10.01, -10.01, -9.42, -9.42, -9.08, -8.78, -8.45, -8.19, -7.9, -7.59, -7.27, -7.55, -6.95, -6.92, -6.92, -6.32, -6.32, -5.71, -5.71, -5.1, -5.08, -4.75, -4.47, -4.12, -3.84, -3.49, -2.86, -2.86, -2.23, -2.23, -1.88, -1.2, -1.24, -0.57, 0.0, 0.0, 0.0, -0.0, 0.54, 0.54, 0.57, 0.95, 0.63, -0.0, -0.0, -0.0, -0.6, -0.0, 0.6, 0.6, -0.0, -0.0, 0.0, 0.0, 0.0, 0.89, 1.8, 2.44, 1.8, 1.7, 3.07, 3.14, 0.54, -1.61, -2.21, -1.26, -0.0, -0.6, -1.26, -1.86, -1.86, -1.86, -9.48, -9.48, -9.21, -9.76, -9.5, -9.86, -9.94, -10.51, -10.15, -10.51, -10.51, -10.51, -10.51, -10.51, -10.51, -10.7, -11.44, -11.35, -11.16, -11.16, -11.16, -11.23, -11.23, -10.36, -10.3, -10.06, -10.01, -9.66, -9.42, -9.08, -8.82, -8.78, -8.19, -8.19, -7.6, -7.3, -7.59, -7.27, -6.95, -6.95, -6.64, -6.32, -6.32, -5.71, -5.71, -5.1, -5.1, -4.75, -4.47, -4.47, -4.12, -3.84, -3.49, -2.86, -2.86, -2.51, -2.23, -1.88, -1.2, -1.24, -0.57, 0.0, 0.0, -0.0, -0.0, -0.0, -0.0, 0.6, 0.6, -0.0, -0.0, -0.0, -0.0, -0.0, 0.6, 0.95, -0.0, -0.6, -1.2, -0.89, -0.45, 0.0, 0.54, 1.8, 1.27, 0.6, 2.5, 3.48, 1.8, -0.51, -1.8, -1.16, -0.0, -0.63, -1.7, -1.7, -1.7, -1.7, -9.48, -9.48, -9.21, -9.76, -9.5, -9.86, -9.59, -9.94, -9.94, -9.94, -10.51, -10.51, -10.15, -10.15, -10.51, -10.7, -11.07, -11.16, -11.16, -11.16, -11.16, -11.23, -11.23, -10.36, -10.65, -10.06, -10.01, -9.42, -9.42, -9.08, -8.78, -8.78, -8.19, -8.19, -7.3, -7.3, -7.3, -6.97, -6.97, -6.95, -6.34, -6.34, -6.04, -6.01, -5.71, -5.1, -5.1, -4.81, -4.75, -4.47, -4.1, -3.84, -3.49, -3.49, -2.86, -2.48, -2.23, -1.84, -1.61, -1.2, -1.24, -0.57, -0.6, 0.0, -0.0, -0.0, -0.0, -0.0, -0.0, -0.0, -0.0, -0.0, -0.0, -0.0, 0.6, 0.6, -0.0, -0.6, -1.6, -1.6, -1.34, -0.8, -0.57, 0.0, 0.57, 0.0, 0.89, 2.51, 2.48, -0.0, -1.27, -1.13, -1.24, -1.79, -2.24, -2.17, -2.17, -2.17, -9.48, -9.48, -9.21, -9.76, -9.5, -9.86, -9.86, -9.37, -9.59, -9.94, -9.94, -9.94, -10.15, -10.15, -10.51, -10.7, -11.07, -11.44, -11.16, -11.16, -11.16, -11.23, -11.23, -10.65, -10.65, -10.06, -10.01, -9.66, -9.42, -9.08, -8.78, -8.45, -8.19, -7.86, -7.59, -7.3, -6.98, -6.69, -6.97, -6.67, -6.34, -6.34, -6.04, -5.72, -5.71, -5.38, -5.1, -5.1, -4.75, -4.75, -4.47, -4.12, -3.47, -3.49, -3.12, -2.86, -2.48, -2.23, -1.84, -1.61, -1.2, -1.24, -0.57, -0.63, 0.0, -0.0, -0.0, -0.0, -0.0, -0.0, -0.0, -0.0, -0.0, -0.0, -0.0, -0.0, -0.63, -0.95, -1.6, -1.7, -1.7, -1.79, -1.86, -1.16, 0.0, 0.0, 0.0, 1.26, 2.23, 1.61, -0.0, -1.16, -2.5, -3.07, -2.68, -2.68, -2.68, -2.68, -9.48, -9.48, -9.21, -9.76, -9.3, -9.3, -9.02, -9.37, -9.59, -9.94, -9.94, -9.94, -10.15, -10.15, -10.51, -11.07, -11.07, -11.07, -11.16, -11.16, -11.16, -11.52, -11.23, -11.23, -10.3, -10.3, -10.01, -9.66, -9.42, -9.08, -8.5, -8.45, -8.19, -7.86, -7.59, -7.3, -6.98, -6.69, -6.97, -6.67, -6.35, -6.34, -6.34, -5.72, -5.72, -5.71, -5.38, -5.1, -5.1, -4.75, -4.75, -4.12, -3.84, -3.49, -3.49, -2.84, -2.86, -2.22, -2.23, -1.6, -1.61, -1.2, -1.24, -0.8, -0.89, -0.63, -0.8, -0.57, -0.95, 0.0, 0.0, -0.0, -0.0, -0.0, -0.0, -1.26, -1.26, -0.6, -0.6, -1.26, -1.7, -1.79, -2.4, -1.88, -1.11, 0.0, -0.66, 0.0, 1.2, 2.15, 1.58, -0.0, -2.5, -2.91, -2.63, -2.68, -2.68, -2.68, -9.48, -9.48, -9.21, -9.21, -8.94, -9.3, -9.3, -9.37, -9.59, -9.94, -9.94, -9.94, -9.94, -10.51, -10.51, -11.07, -11.07, -11.07, -11.07, -11.16, -11.16, -11.16, -11.52, -10.88, -10.59, -10.23, -10.01, -9.66, -9.42, -8.82, -8.5, -8.22, -8.19, -7.86, -7.59, -7.3, -6.98, -6.98, -6.69, -6.64, -6.35, -6.35, -6.06, -6.01, -5.72, -5.72, -5.71, -5.38, -5.1, -5.1, -4.75, -4.1, -4.12, -3.47, -3.49, -3.49, -2.84, -2.86, -2.22, -2.23, -1.6, -1.61, -1.2, -1.24, -1.2, -0.89, -0.6, -1.26, -1.2, -0.89, 0.0, 0.0, 0.0, 0.0, -0.0, -0.71, -1.0, -0.0, -0.6, -1.2, -1.7, -2.24, -2.91, -2.79, -1.8, -0.63, -0.63, -0.59, 0.0, 1.6, 1.58, -0.0, -1.24, -2.0, -2.24, -2.24, -2.24, -2.24, -9.48, -9.48, -9.48, -9.21, -8.94, -9.3, -9.3, -9.37, -9.37, -9.59, -9.94, -9.94, -9.94, -10.15, -10.51, -11.07, -11.07, -11.07, -11.07, -11.16, -11.16, -11.16, -11.16, -11.16, -10.59, -10.23, -10.01, -9.42, -9.42, -8.82, -8.5, -8.22, -7.9, -7.9, -7.3, -7.3, -6.98, -6.98, -6.35, -6.35, -6.08, -6.35, -6.35, -5.72, -5.72, -5.72, -5.72, -5.44, -5.38, -5.1, -4.75, -4.47, -3.85, -4.12, -3.47, -3.22, -3.08, -2.84, -2.44, -2.22, -2.23, -1.6, -1.61, -1.61, -1.58, -1.34, -1.2, -1.26, -1.26, -0.95, 0.0, 0.0, 0.0, 0.0, -0.0, -0.0, -0.54, -0.0, -0.6, -1.2, -2.24, -3.13, -3.39, -3.35, -2.23, -1.11, -0.57, 0.0, 0.0, 0.0, 0.6, -0.0, -0.0, -1.2, -1.34, -1.7, -1.7, -1.7, -9.48, -9.48, -9.48, -9.21, -8.94, -9.3, -9.3, -9.37, -9.37, -9.59, -9.94, -9.94, -9.94, -10.15, -10.51, -11.07, -11.07, -11.07, -11.07, -11.16, -11.16, -11.16, -11.16, -11.16, -10.59, -10.23, -10.01, -9.42, -9.42, -8.82, -8.5, -8.22, -7.9, -7.9, -7.3, -7.3, -6.98, -6.98, -6.35, -6.35, -6.08, -6.35, -6.35, -5.72, -5.72, -5.72, -5.72, -5.44, -5.38, -5.1, -4.75, -4.47, -3.85, -4.12, -3.47, -3.22, -3.08, -2.84, -2.44, -2.22, -2.23, -1.6, -1.61, -1.61, -1.58, -1.34, -1.2, -1.26, -1.26, -0.95, 0.0, 0.0, 0.0, 0.0, -0.0, -0.0, -0.71, -0.0, -0.6, -1.2, -2.24, -3.13, -3.82, -3.72, -3.16, -2.23, -1.27, -0.59, -0.61, -0.57, 0.0, 0.0, 0.0, 0.0, -0.95, -1.24, -1.24, -1.24]}]